Wetterdaten: Samstag, 03.09.2016
Datum Zeit Temp. A. Feuchte A. Luftdruck Regen Wind Richtung Richtung Sonnenschein ET UV Solar Taupunkt Windchill Windben Empfang
03.09.2016 00:00 16,3 C 87 % 1018,4 hPa 0,0 l/m 4,6 km/h (1 Bft) S-SW 206 0 min 0,000 mm 0,0 UV-I 0 W/m 14,1 C 16,3 C 6,4 km/h (2 Bft) 100,00 %
03.09.2016 00:02 16,3 C 87 % 1018,4 hPa 0,0 l/m 6,1 km/h (2 Bft) S-SW 196 0 min 0,000 mm 0,0 UV-I 0 W/m 14,1 C 16,3 C 8,0 km/h (2 Bft) 100,00 %
03.09.2016 00:04 16,4 C 86 % 1018,4 hPa 0,0 l/m 5,8 km/h (2 Bft) S-SW 199 0 min 0,000 mm 0,0 UV-I 0 W/m 14,1 C 16,4 C 8,0 km/h (2 Bft) 100,00 %
03.09.2016 00:06 16,4 C 86 % 1018,5 hPa 0,0 l/m 7,2 km/h (2 Bft) SW 221 0 min 0,000 mm 0,0 UV-I 0 W/m 14,1 C 16,0 C 9,7 km/h (2 Bft) 97,87 %
03.09.2016 00:08 16,4 C 86 % 1018,4 hPa 0,0 l/m 7,0 km/h (2 Bft) S 190 0 min 0,000 mm 0,0 UV-I 0 W/m 14,1 C 16,1 C 9,7 km/h (2 Bft) 100,00 %
03.09.2016 00:10 16,5 C 86 % 1018,4 hPa 0,0 l/m 6,7 km/h (2 Bft) S-SW 204 0 min 0,000 mm 0,0 UV-I 0 W/m 14,1 C 16,4 C 9,7 km/h (2 Bft) 100,00 %
03.09.2016 00:12 16,6 C 85 % 1018,4 hPa 0,0 l/m 8,1 km/h (2 Bft) S-SW 205 0 min 0,000 mm 0,0 UV-I 0 W/m 14,1 C 15,7 C 11,3 km/h (2 Bft) 100,00 %
03.09.2016 00:14 16,7 C 85 % 1018,4 hPa 0,0 l/m 8,3 km/h (2 Bft) S-SW 200 0 min 0,000 mm 0,0 UV-I 0 W/m 14,2 C 15,7 C 11,3 km/h (2 Bft) 100,00 %
03.09.2016 00:16 16,7 C 85 % 1018,4 hPa 0,0 l/m 7,2 km/h (2 Bft) S-SW 200 0 min 0,000 mm 0,0 UV-I 0 W/m 14,2 C 16,3 C 9,7 km/h (2 Bft) 100,00 %
03.09.2016 00:18 16,7 C 84 % 1018,4 hPa 0,0 l/m 7,3 km/h (2 Bft) S 175 0 min 0,000 mm 0,0 UV-I 0 W/m 14,0 C 16,2 C 9,7 km/h (2 Bft) 100,00 %
03.09.2016 00:20 16,7 C 84 % 1018,4 hPa 0,0 l/m 6,2 km/h (2 Bft) SW 227 0 min 0,000 mm 0,0 UV-I 0 W/m 14,0 C 16,7 C 9,7 km/h (2 Bft) 100,00 %
03.09.2016 00:22 16,7 C 84 % 1018,5 hPa 0,0 l/m 7,4 km/h (2 Bft) S-SW 195 0 min 0,000 mm 0,0 UV-I 0 W/m 14,0 C 16,2 C 9,7 km/h (2 Bft) 100,00 %
03.09.2016 00:24 16,7 C 84 % 1018,4 hPa 0,0 l/m 6,3 km/h (2 Bft) S-SW 198 0 min 0,000 mm 0,0 UV-I 0 W/m 14,0 C 16,7 C 8,0 km/h (2 Bft) 100,00 %
03.09.2016 00:26 16,7 C 84 % 1018,4 hPa 0,0 l/m 7,0 km/h (2 Bft) S-SW 209 0 min 0,000 mm 0,0 UV-I 0 W/m 14,0 C 16,4 C 9,7 km/h (2 Bft) 100,00 %
03.09.2016 00:28 16,7 C 84 % 1018,4 hPa 0,0 l/m 6,2 km/h (2 Bft) S-SW 192 0 min 0,000 mm 0,0 UV-I 0 W/m 14,0 C 16,7 C 9,7 km/h (2 Bft) 100,00 %
03.09.2016 00:30 16,7 C 84 % 1018,4 hPa 0,0 l/m 5,9 km/h (2 Bft) S 182 0 min 0,000 mm 0,0 UV-I 0 W/m 14,0 C 16,7 C 8,0 km/h (2 Bft) 100,00 %
03.09.2016 00:32 16,7 C 84 % 1018,4 hPa 0,0 l/m 6,4 km/h (2 Bft) S-SW 198 0 min 0,000 mm 0,0 UV-I 0 W/m 14,0 C 16,7 C 9,7 km/h (2 Bft) 97,87 %
03.09.2016 00:34 16,7 C 84 % 1018,4 hPa 0,0 l/m 5,9 km/h (2 Bft) S-SW 193 0 min 0,000 mm 0,0 UV-I 0 W/m 14,0 C 16,7 C 9,7 km/h (2 Bft) 100,00 %
03.09.2016 00:36 16,7 C 84 % 1018,4 hPa 0,0 l/m 5,5 km/h (1 Bft) S 182 0 min 0,000 mm 0,0 UV-I 0 W/m 14,0 C 16,7 C 8,0 km/h (2 Bft) 97,87 %
03.09.2016 00:38 16,7 C 84 % 1018,4 hPa 0,0 l/m 5,4 km/h (1 Bft) S-SW 205 0 min 0,000 mm 0,0 UV-I 0 W/m 14,0 C 16,7 C 6,4 km/h (2 Bft) 100,00 %
03.09.2016 00:40 16,7 C 84 % 1018,4 hPa 0,0 l/m 4,9 km/h (1 Bft) S-SW 200 0 min 0,000 mm 0,0 UV-I 0 W/m 14,0 C 16,7 C 8,0 km/h (2 Bft) 97,87 %
03.09.2016 00:42 16,7 C 84 % 1018,4 hPa 0,0 l/m 4,5 km/h (1 Bft) S-SW 202 0 min 0,000 mm 0,0 UV-I 0 W/m 14,0 C 16,7 C 6,4 km/h (2 Bft) 95,74 %
03.09.2016 00:44 16,7 C 84 % 1018,4 hPa 0,0 l/m 4,1 km/h (1 Bft) SW 217 0 min 0,000 mm 0,0 UV-I 0 W/m 14,0 C 16,7 C 6,4 km/h (2 Bft) 97,14 %
03.09.2016 00:46 16,6 C 84 % 1018,4 hPa 0,0 l/m 5,8 km/h (2 Bft) S 178 0 min 0,000 mm 0,0 UV-I 0 W/m 13,9 C 16,6 C 8,0 km/h (2 Bft) 98,11 %
03.09.2016 00:48 16,6 C 84 % 1018,4 hPa 0,0 l/m 5,2 km/h (1 Bft) SW 219 0 min 0,000 mm 0,0 UV-I 0 W/m 13,9 C 16,6 C 9,7 km/h (2 Bft) 91,49 %
03.09.2016 00:50 16,6 C 85 % 1018,4 hPa 0,0 l/m 4,5 km/h (1 Bft) S 180 0 min 0,000 mm 0,0 UV-I 0 W/m 14,1 C 16,6 C 6,4 km/h (2 Bft) 97,87 %
03.09.2016 00:52 16,5 C 85 % 1018,4 hPa 0,0 l/m 5,7 km/h (1 Bft) S-SW 205 0 min 0,000 mm 0,0 UV-I 0 W/m 14,0 C 16,5 C 8,0 km/h (2 Bft) 96,00 %
03.09.2016 00:54 16,5 C 85 % 1018,4 hPa 0,0 l/m 7,6 km/h (2 Bft) S-SW 207 0 min 0,000 mm 0,0 UV-I 0 W/m 14,0 C 15,9 C 11,3 km/h (2 Bft) 93,62 %
03.09.2016 00:56 16,5 C 85 % 1018,4 hPa 0,0 l/m 8,9 km/h (2 Bft) S 186 0 min 0,000 mm 0,0 UV-I 0 W/m 14,0 C 15,3 C 11,3 km/h (2 Bft) 97,87 %
03.09.2016 00:58 16,4 C 85 % 1018,4 hPa 0,0 l/m 6,8 km/h (2 Bft) S 185 0 min 0,000 mm 0,0 UV-I 0 W/m 13,9 C 16,2 C 9,7 km/h (2 Bft) 95,74 %
03.09.2016 01:00 16,4 C 85 % 1018,3 hPa 0,0 l/m 7,4 km/h (2 Bft) S-SO 166 0 min 0,025 mm 0,0 UV-I 0 W/m 13,9 C 15,9 C 11,3 km/h (2 Bft) 93,62 %
03.09.2016 01:02 16,4 C 85 % 1018,4 hPa 0,0 l/m 7,3 km/h (2 Bft) S-SO 168 0 min 0,000 mm 0,0 UV-I 0 W/m 13,9 C 15,9 C 9,7 km/h (2 Bft) 97,87 %
03.09.2016 01:04 16,4 C 85 % 1018,4 hPa 0,0 l/m 7,4 km/h (2 Bft) S-SW 201 0 min 0,000 mm 0,0 UV-I 0 W/m 13,9 C 15,9 C 9,7 km/h (2 Bft) 97,87 %
03.09.2016 01:06 16,4 C 85 % 1018,3 hPa 0,0 l/m 6,8 km/h (2 Bft) S-SW 194 0 min 0,000 mm 0,0 UV-I 0 W/m 13,9 C 16,2 C 9,7 km/h (2 Bft) 95,74 %
03.09.2016 01:08 16,4 C 85 % 1018,3 hPa 0,0 l/m 6,3 km/h (2 Bft) S-SW 200 0 min 0,000 mm 0,0 UV-I 0 W/m 13,9 C 16,4 C 9,7 km/h (2 Bft) 97,87 %
03.09.2016 01:10 16,4 C 85 % 1018,3 hPa 0,0 l/m 6,3 km/h (2 Bft) S-SW 197 0 min 0,000 mm 0,0 UV-I 0 W/m 13,9 C 16,4 C 9,7 km/h (2 Bft) 95,74 %
03.09.2016 01:12 16,4 C 85 % 1018,3 hPa 0,0 l/m 6,0 km/h (2 Bft) S-SW 198 0 min 0,000 mm 0,0 UV-I 0 W/m 13,9 C 16,4 C 8,0 km/h (2 Bft) 100,00 %
03.09.2016 01:14 16,4 C 85 % 1018,3 hPa 0,0 l/m 5,9 km/h (2 Bft) S-SW 194 0 min 0,000 mm 0,0 UV-I 0 W/m 13,9 C 16,4 C 8,0 km/h (2 Bft) 96,00 %
03.09.2016 01:16 16,4 C 85 % 1018,3 hPa 0,0 l/m 5,9 km/h (2 Bft) S-SW 206 0 min 0,000 mm 0,0 UV-I 0 W/m 13,9 C 16,4 C 8,0 km/h (2 Bft) 97,87 %
03.09.2016 01:18 16,3 C 85 % 1018,3 hPa 0,0 l/m 3,8 km/h (1 Bft) S-SW 207 0 min 0,000 mm 0,0 UV-I 0 W/m 13,8 C 16,3 C 6,4 km/h (2 Bft) 96,00 %
03.09.2016 01:20 16,3 C 85 % 1018,3 hPa 0,0 l/m 4,1 km/h (1 Bft) SW 214 0 min 0,000 mm 0,0 UV-I 0 W/m 13,8 C 16,3 C 4,8 km/h (1 Bft) 98,00 %
03.09.2016 01:22 16,3 C 85 % 1018,4 hPa 0,0 l/m 3,8 km/h (1 Bft) S-SW 205 0 min 0,000 mm 0,0 UV-I 0 W/m 13,8 C 16,3 C 4,8 km/h (1 Bft) 97,87 %
03.09.2016 01:24 16,3 C 85 % 1018,4 hPa 0,0 l/m 2,4 km/h (1 Bft) S-SW 205 0 min 0,000 mm 0,0 UV-I 0 W/m 13,8 C 16,3 C 4,8 km/h (1 Bft) 97,87 %
03.09.2016 01:26 16,3 C 85 % 1018,5 hPa 0,0 l/m 2,0 km/h (1 Bft) S-SW 205 0 min 0,000 mm 0,0 UV-I 0 W/m 13,8 C 16,3 C 4,8 km/h (1 Bft) 100,00 %
03.09.2016 01:28 16,2 C 85 % 1018,4 hPa 0,0 l/m 0,7 km/h (0 Bft) S-SW 205 0 min 0,000 mm 0,0 UV-I 0 W/m 13,7 C 16,2 C 3,2 km/h (1 Bft) 100,00 %
03.09.2016 01:30 16,1 C 85 % 1018,5 hPa 0,0 l/m 1,1 km/h (1 Bft) S-SW 205 0 min 0,000 mm 0,0 UV-I 0 W/m 13,6 C 16,1 C 3,2 km/h (1 Bft) 96,00 %
03.09.2016 01:32 15,9 C 86 % 1018,4 hPa 0,0 l/m 2,2 km/h (1 Bft) S 169 0 min 0,000 mm 0,0 UV-I 0 W/m 13,6 C 15,9 C 3,2 km/h (1 Bft) 98,00 %
03.09.2016 01:34 15,8 C 86 % 1018,5 hPa 0,0 l/m 2,7 km/h (1 Bft) S-SO 165 0 min 0,000 mm 0,0 UV-I 0 W/m 13,5 C 15,8 C 6,4 km/h (2 Bft) 100,00 %
03.09.2016 01:36 15,7 C 87 % 1018,4 hPa 0,0 l/m 1,5 km/h (1 Bft) S-SO 165 0 min 0,000 mm 0,0 UV-I 0 W/m 13,5 C 15,7 C 3,2 km/h (1 Bft) 100,00 %
03.09.2016 01:38 15,6 C 87 % 1018,5 hPa 0,0 l/m 2,0 km/h (1 Bft) S-SO 165 0 min 0,000 mm 0,0 UV-I 0 W/m 13,4 C 15,6 C 3,2 km/h (1 Bft) 100,00 %
03.09.2016 01:40 15,4 C 87 % 1018,5 hPa 0,0 l/m 2,9 km/h (1 Bft) S-SO 165 0 min 0,000 mm 0,0 UV-I 0 W/m 13,2 C 15,4 C 3,2 km/h (1 Bft) 98,31 %
03.09.2016 01:42 15,3 C 88 % 1018,4 hPa 0,0 l/m 3,9 km/h (1 Bft) S-SO 165 0 min 0,000 mm 0,0 UV-I 0 W/m 13,3 C 15,3 C 6,4 km/h (2 Bft) 100,00 %
03.09.2016 01:44 15,2 C 88 % 1018,4 hPa 0,0 l/m 2,8 km/h (1 Bft) S-SO 165 0 min 0,000 mm 0,0 UV-I 0 W/m 13,2 C 15,2 C 3,2 km/h (1 Bft) 100,00 %
03.09.2016 01:46 15,1 C 88 % 1018,4 hPa 0,0 l/m 1,7 km/h (1 Bft) S-SO 165 0 min 0,000 mm 0,0 UV-I 0 W/m 13,1 C 15,1 C 3,2 km/h (1 Bft) 100,00 %
03.09.2016 01:48 15,1 C 89 % 1018,4 hPa 0,0 l/m 2,3 km/h (1 Bft) S-SO 165 0 min 0,000 mm 0,0 UV-I 0 W/m 13,3 C 15,1 C 3,2 km/h (1 Bft) 100,00 %
03.09.2016 01:50 15,0 C 89 % 1018,4 hPa 0,0 l/m 1,5 km/h (1 Bft) S-SO 165 0 min 0,000 mm 0,0 UV-I 0 W/m 13,2 C 15,0 C 3,2 km/h (1 Bft) 100,00 %
03.09.2016 01:52 15,0 C 89 % 1018,4 hPa 0,0 l/m 0,3 km/h (0 Bft) S-SO 165 0 min 0,000 mm 0,0 UV-I 0 W/m 13,2 C 15,0 C 1,6 km/h (1 Bft) 100,00 %
03.09.2016 01:54 15,0 C 89 % 1018,4 hPa 0,0 l/m 0,4 km/h (0 Bft) S-SO 165 0 min 0,000 mm 0,0 UV-I 0 W/m 13,2 C 15,0 C 1,6 km/h (1 Bft) 97,87 %
03.09.2016 01:56 15,0 C 89 % 1018,4 hPa 0,0 l/m 0,5 km/h (0 Bft) S-SO 165 0 min 0,000 mm 0,0 UV-I 0 W/m 13,2 C 15,0 C 1,6 km/h (1 Bft) 100,00 %
03.09.2016 01:58 14,9 C 89 % 1018,5 hPa 0,0 l/m 2,5 km/h (1 Bft) S-SO 165 0 min 0,000 mm 0,0 UV-I 0 W/m 13,1 C 14,9 C 3,2 km/h (1 Bft) 100,00 %
03.09.2016 02:00 14,8 C 89 % 1018,5 hPa 0,0 l/m 2,3 km/h (1 Bft) S-SO 165 0 min 0,000 mm 0,0 UV-I 0 W/m 13,0 C 14,8 C 3,2 km/h (1 Bft) 100,00 %
03.09.2016 02:02 14,7 C 89 % 1018,5 hPa 0,0 l/m 2,2 km/h (1 Bft) S-SO 165 0 min 0,000 mm 0,0 UV-I 0 W/m 12,9 C 14,7 C 3,2 km/h (1 Bft) 98,00 %
03.09.2016 02:04 14,6 C 90 % 1018,5 hPa 0,0 l/m 1,2 km/h (1 Bft) S-SO 165 0 min 0,000 mm 0,0 UV-I 0 W/m 13,0 C 14,6 C 1,6 km/h (1 Bft) 100,00 %
03.09.2016 02:06 14,6 C 90 % 1018,5 hPa 0,0 l/m 0,1 km/h (0 Bft) S-SO 165 0 min 0,000 mm 0,0 UV-I 0 W/m 13,0 C 14,6 C 1,6 km/h (1 Bft) 100,00 %
03.09.2016 02:08 14,5 C 90 % 1018,5 hPa 0,0 l/m 0,9 km/h (0 Bft) S-SO 165 0 min 0,000 mm 0,0 UV-I 0 W/m 12,9 C 14,5 C 1,6 km/h (1 Bft) 97,87 %
03.09.2016 02:10 14,5 C 91 % 1018,5 hPa 0,0 l/m 0,6 km/h (0 Bft) S-SO 165 0 min 0,000 mm 0,0 UV-I 0 W/m 13,0 C 14,5 C 3,2 km/h (1 Bft) 95,74 %
03.09.2016 02:12 14,6 C 91 % 1018,4 hPa 0,0 l/m 1,6 km/h (1 Bft) S-SO 165 0 min 0,000 mm 0,0 UV-I 0 W/m 13,1 C 14,6 C 3,2 km/h (1 Bft) 100,00 %
03.09.2016 02:14 14,7 C 90 % 1018,4 hPa 0,0 l/m 1,7 km/h (1 Bft) S-SO 164 0 min 0,000 mm 0,0 UV-I 0 W/m 13,1 C 14,7 C 3,2 km/h (1 Bft) 97,96 %
03.09.2016 02:16 14,7 C 90 % 1018,4 hPa 0,0 l/m 0,8 km/h (0 Bft) S-SO 164 0 min 0,000 mm 0,0 UV-I 0 W/m 13,1 C 14,7 C 3,2 km/h (1 Bft) 100,00 %
03.09.2016 02:18 14,6 C 90 % 1018,4 hPa 0,0 l/m 1,1 km/h (1 Bft) S-SO 164 0 min 0,000 mm 0,0 UV-I 0 W/m 13,0 C 14,6 C 3,2 km/h (1 Bft) 100,00 %
03.09.2016 02:20 14,6 C 90 % 1018,4 hPa 0,0 l/m 4,2 km/h (1 Bft) S-SO 153 0 min 0,000 mm 0,0 UV-I 0 W/m 13,0 C 14,6 C 6,4 km/h (2 Bft) 97,87 %
03.09.2016 02:22 14,5 C 90 % 1018,4 hPa 0,0 l/m 4,5 km/h (1 Bft) S-SO 152 0 min 0,000 mm 0,0 UV-I 0 W/m 12,9 C 14,5 C 6,4 km/h (2 Bft) 100,00 %
03.09.2016 02:24 14,5 C 91 % 1018,4 hPa 0,0 l/m 4,6 km/h (1 Bft) S-SO 147 0 min 0,000 mm 0,0 UV-I 0 W/m 13,0 C 14,5 C 6,4 km/h (2 Bft) 100,00 %
03.09.2016 02:26 14,4 C 91 % 1018,4 hPa 0,0 l/m 1,6 km/h (1 Bft) S-SO 147 0 min 0,000 mm 0,0 UV-I 0 W/m 12,9 C 14,4 C 3,2 km/h (1 Bft) 100,00 %
03.09.2016 02:28 14,4 C 91 % 1018,4 hPa 0,0 l/m 1,2 km/h (1 Bft) S-SO 147 0 min 0,000 mm 0,0 UV-I 0 W/m 12,9 C 14,4 C 3,2 km/h (1 Bft) 100,00 %
03.09.2016 02:30 14,4 C 91 % 1018,4 hPa 0,0 l/m 1,4 km/h (1 Bft) S-SO 147 0 min 0,000 mm 0,0 UV-I 0 W/m 12,9 C 14,4 C 4,8 km/h (1 Bft) 100,00 %
03.09.2016 02:32 14,5 C 91 % 1018,4 hPa 0,0 l/m 1,8 km/h (1 Bft) S-SO 147 0 min 0,000 mm 0,0 UV-I 0 W/m 13,0 C 14,5 C 3,2 km/h (1 Bft) 100,00 %
03.09.2016 02:34 14,6 C 91 % 1018,4 hPa 0,0 l/m 2,3 km/h (1 Bft) S-SO 155 0 min 0,000 mm 0,0 UV-I 0 W/m 13,1 C 14,6 C 4,8 km/h (1 Bft) 100,00 %
03.09.2016 02:36 14,6 C 91 % 1018,3 hPa 0,0 l/m 1,2 km/h (1 Bft) S-SO 155 0 min 0,000 mm 0,0 UV-I 0 W/m 13,1 C 14,6 C 3,2 km/h (1 Bft) 100,00 %
03.09.2016 02:38 14,6 C 91 % 1018,5 hPa 0,0 l/m 0,7 km/h (0 Bft) S-SO 155 0 min 0,000 mm 0,0 UV-I 0 W/m 13,1 C 14,6 C 1,6 km/h (1 Bft) 97,87 %
03.09.2016 02:40 14,6 C 90 % 1018,4 hPa 0,0 l/m 1,6 km/h (1 Bft) S-SO 154 0 min 0,000 mm 0,0 UV-I 0 W/m 13,0 C 14,6 C 4,8 km/h (1 Bft) 93,62 %
03.09.2016 02:42 14,6 C 91 % 1018,4 hPa 0,0 l/m 3,2 km/h (1 Bft) S-SO 166 0 min 0,000 mm 0,0 UV-I 0 W/m 13,1 C 14,6 C 6,4 km/h (2 Bft) 93,62 %
03.09.2016 02:44 14,6 C 91 % 1018,4 hPa 0,0 l/m 4,4 km/h (1 Bft) S-SO 155 0 min 0,000 mm 0,0 UV-I 0 W/m 13,1 C 14,6 C 8,0 km/h (2 Bft) 97,87 %
03.09.2016 02:46 14,7 C 91 % 1018,4 hPa 0,0 l/m 3,1 km/h (1 Bft) S-SO 156 0 min 0,000 mm 0,0 UV-I 0 W/m 13,2 C 14,7 C 6,4 km/h (2 Bft) 95,74 %
03.09.2016 02:48 14,7 C 90 % 1018,4 hPa 0,0 l/m 1,8 km/h (1 Bft) S-SO 153 0 min 0,000 mm 0,0 UV-I 0 W/m 13,1 C 14,7 C 4,8 km/h (1 Bft) 97,87 %
03.09.2016 02:50 14,8 C 90 % 1018,4 hPa 0,0 l/m 1,7 km/h (1 Bft) S-SO 153 0 min 0,000 mm 0,0 UV-I 0 W/m 13,2 C 14,8 C 3,2 km/h (1 Bft) 97,87 %
03.09.2016 02:52 14,8 C 90 % 1018,4 hPa 0,0 l/m 1,8 km/h (1 Bft) S-SO 153 0 min 0,000 mm 0,0 UV-I 0 W/m 13,2 C 14,8 C 3,2 km/h (1 Bft) 95,74 %
03.09.2016 02:54 14,7 C 90 % 1018,4 hPa 0,0 l/m 0,9 km/h (0 Bft) S-SO 153 0 min 0,000 mm 0,0 UV-I 0 W/m 13,1 C 14,7 C 1,6 km/h (1 Bft) 95,74 %
03.09.2016 02:56 14,7 C 90 % 1018,4 hPa 0,0 l/m 1,6 km/h (1 Bft) S-SO 153 0 min 0,000 mm 0,0 UV-I 0 W/m 13,1 C 14,7 C 3,2 km/h (1 Bft) 93,62 %
03.09.2016 02:58 14,6 C 90 % 1018,4 hPa 0,0 l/m 1,9 km/h (1 Bft) S-SO 153 0 min 0,000 mm 0,0 UV-I 0 W/m 13,0 C 14,6 C 3,2 km/h (1 Bft) 95,74 %
03.09.2016 03:00 14,4 C 90 % 1018,4 hPa 0,0 l/m 1,0 km/h (0 Bft) S-SO 153 0 min 0,000 mm 0,0 UV-I 0 W/m 12,8 C 14,4 C 1,6 km/h (1 Bft) 97,87 %
03.09.2016 03:02 14,3 C 91 % 1018,4 hPa 0,0 l/m 1,0 km/h (0 Bft) S-SO 153 0 min 0,000 mm 0,0 UV-I 0 W/m 12,8 C 14,3 C 1,6 km/h (1 Bft) 97,92 %
03.09.2016 03:04 14,3 C 91 % 1018,4 hPa 0,0 l/m 1,1 km/h (1 Bft) S-SO 153 0 min 0,000 mm 0,0 UV-I 0 W/m 12,8 C 14,3 C 1,6 km/h (1 Bft) 97,87 %
03.09.2016 03:06 14,3 C 91 % 1018,4 hPa 0,0 l/m 0,4 km/h (0 Bft) S-SO 153 0 min 0,000 mm 0,0 UV-I 0 W/m 12,8 C 14,3 C 1,6 km/h (1 Bft) 97,87 %
03.09.2016 03:08 14,3 C 91 % 1018,3 hPa 0,0 l/m 0,4 km/h (0 Bft) S-SO 153 0 min 0,000 mm 0,0 UV-I 0 W/m 12,8 C 14,3 C 1,6 km/h (1 Bft) 93,62 %
03.09.2016 03:10 14,3 C 91 % 1018,3 hPa 0,0 l/m 0,5 km/h (0 Bft) S-SO 153 0 min 0,000 mm 0,0 UV-I 0 W/m 12,8 C 14,3 C 1,6 km/h (1 Bft) 97,87 %
03.09.2016 03:12 14,3 C 91 % 1018,3 hPa 0,0 l/m 0,7 km/h (0 Bft) S-SO 153 0 min 0,000 mm 0,0 UV-I 0 W/m 12,8 C 14,3 C 1,6 km/h (1 Bft) 93,75 %
03.09.2016 03:14 14,3 C 91 % 1018,3 hPa 0,0 l/m 1,1 km/h (1 Bft) S-SO 153 0 min 0,000 mm 0,0 UV-I 0 W/m 12,8 C 14,3 C 3,2 km/h (1 Bft) 100,00 %
03.09.2016 03:16 14,3 C 91 % 1018,3 hPa 0,0 l/m 1,6 km/h (1 Bft) S-SO 153 0 min 0,000 mm 0,0 UV-I 0 W/m 12,8 C 14,3 C 3,2 km/h (1 Bft) 95,74 %
03.09.2016 03:18 14,3 C 91 % 1018,3 hPa 0,0 l/m 0,3 km/h (0 Bft) S-SO 153 0 min 0,000 mm 0,0 UV-I 0 W/m 12,8 C 14,3 C 1,6 km/h (1 Bft) 97,87 %
03.09.2016 03:20 14,3 C 91 % 1018,3 hPa 0,0 l/m 0,9 km/h (0 Bft) S-SO 153 0 min 0,000 mm 0,0 UV-I 0 W/m 12,8 C 14,3 C 1,6 km/h (1 Bft) 97,87 %
03.09.2016 03:22 14,3 C 91 % 1018,3 hPa 0,0 l/m 1,7 km/h (1 Bft) S-SO 153 0 min 0,000 mm 0,0 UV-I 0 W/m 12,8 C 14,3 C 3,2 km/h (1 Bft) 100,00 %
03.09.2016 03:24 14,3 C 91 % 1018,3 hPa 0,0 l/m 1,4 km/h (1 Bft) S-SO 153 0 min 0,000 mm 0,0 UV-I 0 W/m 12,8 C 14,3 C 3,2 km/h (1 Bft) 93,62 %
03.09.2016 03:26 14,3 C 91 % 1018,3 hPa 0,0 l/m 2,3 km/h (1 Bft) S-SO 153 0 min 0,000 mm 0,0 UV-I 0 W/m 12,8 C 14,3 C 3,2 km/h (1 Bft) 97,87 %
03.09.2016 03:28 14,2 C 91 % 1018,3 hPa 0,0 l/m 1,6 km/h (1 Bft) S-SO 153 0 min 0,000 mm 0,0 UV-I 0 W/m 12,8 C 14,2 C 3,2 km/h (1 Bft) 97,87 %
03.09.2016 03:30 14,2 C 91 % 1018,3 hPa 0,0 l/m 1,1 km/h (1 Bft) S-SO 153 0 min 0,000 mm 0,0 UV-I 0 W/m 12,8 C 14,2 C 3,2 km/h (1 Bft) 97,87 %
03.09.2016 03:32 14,2 C 92 % 1018,3 hPa 0,0 l/m 0,5 km/h (0 Bft) S-SO 153 0 min 0,000 mm 0,0 UV-I 0 W/m 12,9 C 14,2 C 1,6 km/h (1 Bft) 97,87 %
03.09.2016 03:34 14,1 C 91 % 1018,3 hPa 0,0 l/m 0,5 km/h (0 Bft) S-SO 153 0 min 0,000 mm 0,0 UV-I 0 W/m 12,7 C 14,1 C 1,6 km/h (1 Bft) 100,00 %
03.09.2016 03:36 14,0 C 91 % 1018,3 hPa 0,0 l/m 1,5 km/h (1 Bft) S-SO 153 0 min 0,000 mm 0,0 UV-I 0 W/m 12,6 C 14,0 C 3,2 km/h (1 Bft) 97,14 %
03.09.2016 03:38 14,0 C 92 % 1018,3 hPa 0,0 l/m 2,6 km/h (1 Bft) S-SO 153 0 min 0,000 mm 0,0 UV-I 0 W/m 12,7 C 14,0 C 3,2 km/h (1 Bft) 100,00 %
03.09.2016 03:40 14,0 C 92 % 1018,2 hPa 0,0 l/m 2,8 km/h (1 Bft) S-SO 153 0 min 0,000 mm 0,0 UV-I 0 W/m 12,7 C 14,0 C 4,8 km/h (1 Bft) 100,00 %
03.09.2016 03:42 14,1 C 92 % 1018,3 hPa 0,0 l/m 2,3 km/h (1 Bft) S-SO 153 0 min 0,000 mm 0,0 UV-I 0 W/m 12,8 C 14,1 C 3,2 km/h (1 Bft) 100,00 %
03.09.2016 03:44 14,1 C 92 % 1018,3 hPa 0,0 l/m 1,3 km/h (1 Bft) S-SO 153 0 min 0,000 mm 0,0 UV-I 0 W/m 12,8 C 14,1 C 1,6 km/h (1 Bft) 97,87 %
03.09.2016 03:46 14,1 C 91 % 1018,3 hPa 0,0 l/m 0,8 km/h (0 Bft) S-SO 153 0 min 0,000 mm 0,0 UV-I 0 W/m 12,7 C 14,1 C 1,6 km/h (1 Bft) 100,00 %
03.09.2016 03:48 14,1 C 91 % 1018,3 hPa 0,0 l/m 0,5 km/h (0 Bft) S-SO 153 0 min 0,000 mm 0,0 UV-I 0 W/m 12,7 C 14,1 C 1,6 km/h (1 Bft) 100,00 %
03.09.2016 03:50 14,1 C 92 % 1018,3 hPa 0,0 l/m 0,0 km/h (0 Bft) S-SO 153 0 min 0,000 mm 0,0 UV-I 0 W/m 12,8 C 14,1 C 1,6 km/h (1 Bft) 95,74 %
03.09.2016 03:52 14,2 C 92 % 1018,4 hPa 0,0 l/m 0,1 km/h (0 Bft) S-SO 153 0 min 0,000 mm 0,0 UV-I 0 W/m 12,9 C 14,2 C 1,6 km/h (1 Bft) 96,00 %
03.09.2016 03:54 14,2 C 92 % 1018,3 hPa 0,0 l/m 0,7 km/h (0 Bft) S-SO 153 0 min 0,000 mm 0,0 UV-I 0 W/m 12,9 C 14,2 C 1,6 km/h (1 Bft) 100,00 %
03.09.2016 03:56 14,2 C 91 % 1018,4 hPa 0,0 l/m 1,5 km/h (1 Bft) S-SO 153 0 min 0,000 mm 0,0 UV-I 0 W/m 12,8 C 14,2 C 3,2 km/h (1 Bft) 100,00 %
03.09.2016 03:58 14,2 C 91 % 1018,3 hPa 0,0 l/m 1,5 km/h (1 Bft) S-SO 153 0 min 0,000 mm 0,0 UV-I 0 W/m 12,8 C 14,2 C 3,2 km/h (1 Bft) 100,00 %
03.09.2016 04:00 14,2 C 91 % 1018,2 hPa 0,0 l/m 0,6 km/h (0 Bft) S-SO 153 0 min 0,000 mm 0,0 UV-I 0 W/m 12,8 C 14,2 C 1,6 km/h (1 Bft) 97,14 %
03.09.2016 04:02 14,3 C 90 % 1018,3 hPa 0,0 l/m 0,9 km/h (0 Bft) S-SO 153 0 min 0,000 mm 0,0 UV-I 0 W/m 12,7 C 14,3 C 1,6 km/h (1 Bft) 100,00 %
03.09.2016 04:04 14,2 C 90 % 1018,3 hPa 0,0 l/m 0,0 km/h (0 Bft) S-SO 153 0 min 0,000 mm 0,0 UV-I 0 W/m 12,6 C 14,2 C 1,6 km/h (1 Bft) 100,00 %
03.09.2016 04:06 14,2 C 90 % 1018,3 hPa 0,0 l/m 0,3 km/h (0 Bft) S-SO 153 0 min 0,000 mm 0,0 UV-I 0 W/m 12,6 C 14,2 C 1,6 km/h (1 Bft) 97,87 %
03.09.2016 04:08 14,2 C 91 % 1018,3 hPa 0,0 l/m 0,1 km/h (0 Bft) S-SO 153 0 min 0,000 mm 0,0 UV-I 0 W/m 12,8 C 14,2 C 1,6 km/h (1 Bft) 100,00 %
03.09.2016 04:10 14,2 C 91 % 1018,3 hPa 0,0 l/m 0,6 km/h (0 Bft) S-SO 153 0 min 0,000 mm 0,0 UV-I 0 W/m 12,8 C 14,2 C 1,6 km/h (1 Bft) 100,00 %
03.09.2016 04:12 14,3 C 91 % 1018,3 hPa 0,0 l/m 0,8 km/h (0 Bft) S-SO 153 0 min 0,000 mm 0,0 UV-I 0 W/m 12,8 C 14,3 C 1,6 km/h (1 Bft) 97,87 %
03.09.2016 04:14 14,3 C 90 % 1018,2 hPa 0,0 l/m 1,1 km/h (1 Bft) S-SO 153 0 min 0,000 mm 0,0 UV-I 0 W/m 12,7 C 14,3 C 3,2 km/h (1 Bft) 95,74 %
03.09.2016 04:16 14,3 C 90 % 1018,3 hPa 0,0 l/m 0,9 km/h (0 Bft) S-SO 153 0 min 0,000 mm 0,0 UV-I 0 W/m 12,7 C 14,3 C 1,6 km/h (1 Bft) 97,87 %
03.09.2016 04:18 14,2 C 90 % 1018,2 hPa 0,0 l/m 0,6 km/h (0 Bft) S-SO 153 0 min 0,000 mm 0,0 UV-I 0 W/m 12,6 C 14,2 C 1,6 km/h (1 Bft) 97,87 %
03.09.2016 04:20 14,2 C 90 % 1018,3 hPa 0,0 l/m 1,8 km/h (1 Bft) S-SO 153 0 min 0,000 mm 0,0 UV-I 0 W/m 12,6 C 14,2 C 3,2 km/h (1 Bft) 100,00 %
03.09.2016 04:22 14,1 C 90 % 1018,2 hPa 0,0 l/m 2,4 km/h (1 Bft) S-SO 153 0 min 0,000 mm 0,0 UV-I 0 W/m 12,5 C 14,1 C 3,2 km/h (1 Bft) 98,36 %
03.09.2016 04:24 14,1 C 91 % 1018,3 hPa 0,0 l/m 0,6 km/h (0 Bft) S-SO 153 0 min 0,000 mm 0,0 UV-I 0 W/m 12,7 C 14,1 C 3,2 km/h (1 Bft) 97,92 %
03.09.2016 04:26 14,1 C 91 % 1018,2 hPa 0,0 l/m 0,0 km/h (0 Bft) S-SO 153 0 min 0,000 mm 0,0 UV-I 0 W/m 12,7 C 14,1 C 1,6 km/h (1 Bft) 97,87 %
03.09.2016 04:28 14,1 C 91 % 1018,2 hPa 0,0 l/m 0,7 km/h (0 Bft) S-SO 153 0 min 0,000 mm 0,0 UV-I 0 W/m 12,7 C 14,1 C 1,6 km/h (1 Bft) 100,00 %
03.09.2016 04:30 14,2 C 91 % 1018,2 hPa 0,0 l/m 0,0 km/h (0 Bft) S-SO 153 0 min 0,000 mm 0,0 UV-I 0 W/m 12,8 C 14,2 C 0,0 km/h (0 Bft) 100,00 %
03.09.2016 04:32 14,1 C 90 % 1018,2 hPa 0,0 l/m 0,0 km/h (0 Bft) S-SO 153 0 min 0,000 mm 0,0 UV-I 0 W/m 12,5 C 14,1 C 0,0 km/h (0 Bft) 97,87 %
03.09.2016 04:34 14,0 C 90 % 1018,3 hPa 0,0 l/m 0,0 km/h (0 Bft) S-SO 153 0 min 0,000 mm 0,0 UV-I 0 W/m 12,4 C 14,0 C 0,0 km/h (0 Bft) 100,00 %
03.09.2016 04:36 13,8 C 90 % 1018,3 hPa 0,0 l/m 0,0 km/h (0 Bft) S-SO 153 0 min 0,000 mm 0,0 UV-I 0 W/m 12,2 C 13,8 C 0,0 km/h (0 Bft) 100,00 %
03.09.2016 04:38 13,7 C 91 % 1018,3 hPa 0,0 l/m 0,0 km/h (0 Bft) S-SO 153 0 min 0,000 mm 0,0 UV-I 0 W/m 12,3 C 13,7 C 0,0 km/h (0 Bft) 98,00 %
03.09.2016 04:40 13,6 C 91 % 1018,3 hPa 0,0 l/m 0,0 km/h (0 Bft) S-SO 153 0 min 0,000 mm 0,0 UV-I 0 W/m 12,2 C 13,6 C 0,0 km/h (0 Bft) 97,87 %
03.09.2016 04:42 13,6 C 92 % 1018,3 hPa 0,0 l/m 1,3 km/h (1 Bft) S-SO 153 0 min 0,000 mm 0,0 UV-I 0 W/m 12,3 C 13,6 C 3,2 km/h (1 Bft) 95,74 %
03.09.2016 04:44 13,5 C 92 % 1018,4 hPa 0,0 l/m 2,9 km/h (1 Bft) S-SO 153 0 min 0,000 mm 0,0 UV-I 0 W/m 12,2 C 13,5 C 4,8 km/h (1 Bft) 97,87 %
03.09.2016 04:46 13,6 C 93 % 1018,4 hPa 0,0 l/m 3,8 km/h (1 Bft) S-SO 153 0 min 0,000 mm 0,0 UV-I 0 W/m 12,5 C 13,6 C 4,8 km/h (1 Bft) 95,74 %
03.09.2016 04:48 13,6 C 93 % 1018,4 hPa 0,0 l/m 4,2 km/h (1 Bft) S 188 0 min 0,000 mm 0,0 UV-I 0 W/m 12,5 C 13,6 C 6,4 km/h (2 Bft) 97,87 %
03.09.2016 04:50 13,6 C 93 % 1018,4 hPa 0,0 l/m 3,7 km/h (1 Bft) S 188 0 min 0,000 mm 0,0 UV-I 0 W/m 12,5 C 13,6 C 4,8 km/h (1 Bft) 95,74 %
03.09.2016 04:52 13,6 C 93 % 1018,4 hPa 0,0 l/m 3,3 km/h (1 Bft) S 188 0 min 0,000 mm 0,0 UV-I 0 W/m 12,5 C 13,6 C 4,8 km/h (1 Bft) 97,87 %
03.09.2016 04:54 13,6 C 93 % 1018,4 hPa 0,0 l/m 2,5 km/h (1 Bft) S 188 0 min 0,000 mm 0,0 UV-I 0 W/m 12,5 C 13,6 C 3,2 km/h (1 Bft) 95,74 %
03.09.2016 04:56 13,6 C 93 % 1018,4 hPa 0,0 l/m 2,7 km/h (1 Bft) S 188 0 min 0,000 mm 0,0 UV-I 0 W/m 12,5 C 13,6 C 3,2 km/h (1 Bft) 95,74 %
03.09.2016 04:58 13,5 C 93 % 1018,4 hPa 0,0 l/m 0,9 km/h (0 Bft) S 188 0 min 0,000 mm 0,0 UV-I 0 W/m 12,4 C 13,5 C 3,2 km/h (1 Bft) 97,87 %
03.09.2016 05:00 13,3 C 92 % 1018,4 hPa 0,0 l/m 0,7 km/h (0 Bft) S 188 0 min 0,000 mm 0,0 UV-I 0 W/m 12,0 C 13,3 C 1,6 km/h (1 Bft) 95,74 %
03.09.2016 05:02 13,2 C 93 % 1018,4 hPa 0,0 l/m 1,2 km/h (1 Bft) S 187 0 min 0,000 mm 0,0 UV-I 0 W/m 12,1 C 13,2 C 3,2 km/h (1 Bft) 95,74 %
03.09.2016 05:04 13,2 C 93 % 1018,4 hPa 0,0 l/m 1,0 km/h (0 Bft) S 187 0 min 0,000 mm 0,0 UV-I 0 W/m 12,1 C 13,2 C 1,6 km/h (1 Bft) 97,87 %
03.09.2016 05:06 13,2 C 93 % 1018,4 hPa 0,0 l/m 0,5 km/h (0 Bft) S 187 0 min 0,000 mm 0,0 UV-I 0 W/m 12,1 C 13,2 C 1,6 km/h (1 Bft) 97,92 %
03.09.2016 05:08 13,2 C 93 % 1018,4 hPa 0,0 l/m 0,5 km/h (0 Bft) S 187 0 min 0,000 mm 0,0 UV-I 0 W/m 12,1 C 13,2 C 1,6 km/h (1 Bft) 95,74 %
03.09.2016 05:10 13,3 C 93 % 1018,4 hPa 0,0 l/m 0,8 km/h (0 Bft) S 187 0 min 0,000 mm 0,0 UV-I 0 W/m 12,2 C 13,3 C 1,6 km/h (1 Bft) 97,37 %
03.09.2016 05:12 13,4 C 94 % 1018,4 hPa 0,0 l/m 1,6 km/h (1 Bft) S 187 0 min 0,000 mm 0,0 UV-I 0 W/m 12,5 C 13,4 C 3,2 km/h (1 Bft) 97,87 %
03.09.2016 05:14 13,6 C 93 % 1018,4 hPa 0,0 l/m 1,8 km/h (1 Bft) S 187 0 min 0,000 mm 0,0 UV-I 0 W/m 12,5 C 13,6 C 3,2 km/h (1 Bft) 96,00 %
03.09.2016 05:16 13,7 C 93 % 1018,4 hPa 0,0 l/m 1,4 km/h (1 Bft) S 187 0 min 0,000 mm 0,0 UV-I 0 W/m 12,6 C 13,7 C 3,2 km/h (1 Bft) 97,87 %
03.09.2016 05:18 13,7 C 92 % 1018,4 hPa 0,0 l/m 0,5 km/h (0 Bft) S 187 0 min 0,000 mm 0,0 UV-I 0 W/m 12,4 C 13,7 C 1,6 km/h (1 Bft) 100,00 %
03.09.2016 05:20 13,6 C 92 % 1018,4 hPa 0,0 l/m 0,0 km/h (0 Bft) S 187 0 min 0,000 mm 0,0 UV-I 0 W/m 12,3 C 13,6 C 1,6 km/h (1 Bft) 97,87 %
03.09.2016 05:22 13,5 C 92 % 1018,3 hPa 0,0 l/m 0,4 km/h (0 Bft) S 187 0 min 0,000 mm 0,0 UV-I 0 W/m 12,2 C 13,5 C 1,6 km/h (1 Bft) 97,87 %
03.09.2016 05:24 13,5 C 92 % 1018,3 hPa 0,0 l/m 1,8 km/h (1 Bft) S 187 0 min 0,000 mm 0,0 UV-I 0 W/m 12,2 C 13,5 C 3,2 km/h (1 Bft) 100,00 %
03.09.2016 05:26 13,6 C 93 % 1018,3 hPa 0,0 l/m 1,7 km/h (1 Bft) S 187 0 min 0,000 mm 0,0 UV-I 0 W/m 12,5 C 13,6 C 3,2 km/h (1 Bft) 95,74 %
03.09.2016 05:28 13,6 C 93 % 1018,3 hPa 0,0 l/m 1,3 km/h (1 Bft) S 187 0 min 0,000 mm 0,0 UV-I 0 W/m 12,5 C 13,6 C 3,2 km/h (1 Bft) 100,00 %
03.09.2016 05:30 13,7 C 93 % 1018,3 hPa 0,0 l/m 0,5 km/h (0 Bft) S 187 0 min 0,000 mm 0,0 UV-I 0 W/m 12,6 C 13,7 C 1,6 km/h (1 Bft) 100,00 %
03.09.2016 05:32 13,8 C 92 % 1018,3 hPa 0,0 l/m 0,4 km/h (0 Bft) S 187 0 min 0,000 mm 0,0 UV-I 0 W/m 12,5 C 13,8 C 1,6 km/h (1 Bft) 100,00 %
03.09.2016 05:34 13,8 C 92 % 1018,3 hPa 0,0 l/m 0,8 km/h (0 Bft) S 187 0 min 0,000 mm 0,0 UV-I 0 W/m 12,5 C 13,8 C 1,6 km/h (1 Bft) 97,87 %
03.09.2016 05:36 13,8 C 92 % 1018,3 hPa 0,0 l/m 0,7 km/h (0 Bft) S 187 0 min 0,000 mm 0,0 UV-I 0 W/m 12,5 C 13,8 C 1,6 km/h (1 Bft) 100,00 %
03.09.2016 05:38 13,7 C 91 % 1018,2 hPa 0,0 l/m 0,5 km/h (0 Bft) S 187 0 min 0,000 mm 0,0 UV-I 0 W/m 12,3 C 13,7 C 1,6 km/h (1 Bft) 97,87 %
03.09.2016 05:40 13,7 C 92 % 1018,2 hPa 0,0 l/m 0,0 km/h (0 Bft) S 187 0 min 0,000 mm 0,0 UV-I 0 W/m 12,4 C 13,7 C 0,0 km/h (0 Bft) 100,00 %
03.09.2016 05:42 13,7 C 92 % 1018,2 hPa 0,0 l/m 0,0 km/h (0 Bft) S 187 0 min 0,000 mm 0,0 UV-I 0 W/m 12,4 C 13,7 C 0,0 km/h (0 Bft) 100,00 %
03.09.2016 05:44 13,8 C 92 % 1018,2 hPa 0,0 l/m 0,3 km/h (0 Bft) S 187 0 min 0,000 mm 0,0 UV-I 0 W/m 12,5 C 13,8 C 1,6 km/h (1 Bft) 100,00 %
03.09.2016 05:46 13,7 C 91 % 1018,2 hPa 0,0 l/m 0,0 km/h (0 Bft) S 187 0 min 0,000 mm 0,0 UV-I 0 W/m 12,3 C 13,7 C 1,6 km/h (1 Bft) 100,00 %
03.09.2016 05:48 13,7 C 91 % 1018,2 hPa 0,0 l/m 0,6 km/h (0 Bft) S 187 0 min 0,000 mm 0,0 UV-I 0 W/m 12,3 C 13,7 C 1,6 km/h (1 Bft) 100,00 %
03.09.2016 05:50 13,6 C 91 % 1018,2 hPa 0,0 l/m 0,0 km/h (0 Bft) S 187 0 min 0,000 mm 0,0 UV-I 0 W/m 12,2 C 13,6 C 0,0 km/h (0 Bft) 97,14 %
03.09.2016 05:52 13,4 C 91 % 1018,2 hPa 0,0 l/m 0,0 km/h (0 Bft) S 187 0 min 0,000 mm 0,0 UV-I 0 W/m 12,0 C 13,4 C 0,0 km/h (0 Bft) 100,00 %
03.09.2016 05:54 13,3 C 92 % 1018,2 hPa 0,0 l/m 0,0 km/h (0 Bft) S 187 0 min 0,000 mm 0,0 UV-I 0 W/m 12,0 C 13,3 C 0,0 km/h (0 Bft) 97,87 %
03.09.2016 05:56 13,3 C 92 % 1018,2 hPa 0,0 l/m 0,0 km/h (0 Bft) S 187 0 min 0,000 mm 0,0 UV-I 0 W/m 12,0 C 13,3 C 0,0 km/h (0 Bft) 97,87 %
03.09.2016 05:58 13,2 C 92 % 1018,2 hPa 0,0 l/m 0,0 km/h (0 Bft) S 187 0 min 0,000 mm 0,0 UV-I 0 W/m 11,9 C 13,2 C 0,0 km/h (0 Bft) 97,87 %
03.09.2016 06:00 13,2 C 93 % 1018,2 hPa 0,0 l/m 0,0 km/h (0 Bft) S 187 0 min 0,000 mm 0,0 UV-I 0 W/m 12,1 C 13,2 C 0,0 km/h (0 Bft) 100,00 %
03.09.2016 06:02 13,2 C 93 % 1018,1 hPa 0,0 l/m 0,0 km/h (0 Bft) S 187 0 min 0,000 mm 0,0 UV-I 0 W/m 12,1 C 13,2 C 1,6 km/h (1 Bft) 100,00 %
03.09.2016 06:04 13,2 C 93 % 1018,1 hPa 0,0 l/m 0,3 km/h (0 Bft) S 187 0 min 0,000 mm 0,0 UV-I 0 W/m 12,1 C 13,2 C 1,6 km/h (1 Bft) 95,74 %
03.09.2016 06:06 13,2 C 93 % 1018,1 hPa 0,0 l/m 0,5 km/h (0 Bft) S 187 0 min 0,000 mm 0,0 UV-I 0 W/m 12,1 C 13,2 C 1,6 km/h (1 Bft) 100,00 %
03.09.2016 06:08 13,2 C 93 % 1018,1 hPa 0,0 l/m 0,4 km/h (0 Bft) S 187 0 min 0,000 mm 0,0 UV-I 0 W/m 12,1 C 13,2 C 1,6 km/h (1 Bft) 100,00 %
03.09.2016 06:10 13,2 C 93 % 1018,0 hPa 0,0 l/m 0,3 km/h (0 Bft) S 187 0 min 0,000 mm 0,0 UV-I 0 W/m 12,1 C 13,2 C 1,6 km/h (1 Bft) 100,00 %
03.09.2016 06:12 13,3 C 93 % 1018,1 hPa 0,0 l/m 0,7 km/h (0 Bft) S 187 0 min 0,000 mm 0,0 UV-I 0 W/m 12,2 C 13,3 C 1,6 km/h (1 Bft) 100,00 %
03.09.2016 06:14 13,3 C 93 % 1018,1 hPa 0,0 l/m 0,2 km/h (0 Bft) S 187 0 min 0,000 mm 0,0 UV-I 5 W/m 12,2 C 13,3 C 1,6 km/h (1 Bft) 100,00 %
03.09.2016 06:16 13,3 C 92 % 1018,1 hPa 0,0 l/m 0,1 km/h (0 Bft) S 187 0 min 0,000 mm 0,0 UV-I 7 W/m 12,0 C 13,3 C 1,6 km/h (1 Bft) 100,00 %
03.09.2016 06:18 13,3 C 93 % 1018,1 hPa 0,0 l/m 0,0 km/h (0 Bft) S 187 0 min 0,000 mm 0,0 UV-I 8 W/m 12,2 C 13,3 C 0,0 km/h (0 Bft) 100,00 %
03.09.2016 06:20 13,3 C 92 % 1018,2 hPa 0,0 l/m 0,0 km/h (0 Bft) S 187 0 min 0,000 mm 0,0 UV-I 10 W/m 12,0 C 13,3 C 1,6 km/h (1 Bft) 100,00 %
03.09.2016 06:22 13,3 C 93 % 1018,2 hPa 0,0 l/m 0,4 km/h (0 Bft) S 187 0 min 0,000 mm 0,0 UV-I 12 W/m 12,2 C 13,3 C 1,6 km/h (1 Bft) 100,00 %
03.09.2016 06:24 13,2 C 93 % 1018,2 hPa 0,0 l/m 0,0 km/h (0 Bft) S 187 0 min 0,000 mm 0,0 UV-I 12 W/m 12,1 C 13,2 C 0,0 km/h (0 Bft) 100,00 %
03.09.2016 06:26 13,2 C 93 % 1018,1 hPa 0,0 l/m 0,1 km/h (0 Bft) S 187 0 min 0,000 mm 0,0 UV-I 12 W/m 12,1 C 13,2 C 1,6 km/h (1 Bft) 97,87 %
03.09.2016 06:28 13,3 C 93 % 1018,1 hPa 0,0 l/m 0,1 km/h (0 Bft) S 187 0 min 0,000 mm 0,0 UV-I 13 W/m 12,2 C 13,3 C 1,6 km/h (1 Bft) 97,87 %
03.09.2016 06:30 13,3 C 93 % 1018,2 hPa 0,0 l/m 0,2 km/h (0 Bft) S 187 0 min 0,000 mm 0,0 UV-I 16 W/m 12,2 C 13,3 C 1,6 km/h (1 Bft) 100,00 %
03.09.2016 06:32 13,3 C 93 % 1018,2 hPa 0,0 l/m 0,1 km/h (0 Bft) S 187 0 min 0,000 mm 0,0 UV-I 18 W/m 12,2 C 13,3 C 1,6 km/h (1 Bft) 100,00 %
03.09.2016 06:34 13,3 C 93 % 1018,2 hPa 0,0 l/m 0,0 km/h (0 Bft) S 187 0 min 0,000 mm 0,0 UV-I 20 W/m 12,2 C 13,3 C 0,0 km/h (0 Bft) 100,00 %
03.09.2016 06:36 13,3 C 93 % 1018,2 hPa 0,0 l/m 0,0 km/h (0 Bft) S 187 2 min 0,000 mm 0,0 UV-I 23 W/m 12,2 C 13,3 C 0,0 km/h (0 Bft) 100,00 %
03.09.2016 06:38 13,3 C 93 % 1018,2 hPa 0,0 l/m 0,0 km/h (0 Bft) S 187 2 min 0,000 mm 0,0 UV-I 24 W/m 12,2 C 13,3 C 0,0 km/h (0 Bft) 100,00 %
03.09.2016 06:40 13,3 C 93 % 1018,2 hPa 0,0 l/m 0,0 km/h (0 Bft) S 187 2 min 0,000 mm 0,0 UV-I 27 W/m 12,2 C 13,3 C 0,0 km/h (0 Bft) 97,87 %
03.09.2016 06:42 13,3 C 93 % 1018,2 hPa 0,0 l/m 0,0 km/h (0 Bft) S 187 2 min 0,000 mm 0,0 UV-I 28 W/m 12,2 C 13,3 C 0,0 km/h (0 Bft) 95,74 %
03.09.2016 06:44 13,3 C 93 % 1018,2 hPa 0,0 l/m 0,0 km/h (0 Bft) S 187 2 min 0,000 mm 0,0 UV-I 28 W/m 12,2 C 13,3 C 0,0 km/h (0 Bft) 97,87 %
03.09.2016 06:46 13,3 C 93 % 1018,2 hPa 0,0 l/m 0,0 km/h (0 Bft) S 187 2 min 0,000 mm 0,0 UV-I 31 W/m 12,2 C 13,3 C 0,0 km/h (0 Bft) 95,74 %
03.09.2016 06:48 13,3 C 93 % 1018,3 hPa 0,0 l/m 0,0 km/h (0 Bft) S 187 2 min 0,000 mm 0,0 UV-I 32 W/m 12,2 C 13,3 C 0,0 km/h (0 Bft) 97,87 %
03.09.2016 06:50 13,2 C 93 % 1018,3 hPa 0,0 l/m 0,0 km/h (0 Bft) S 187 2 min 0,000 mm 0,0 UV-I 34 W/m 12,1 C 13,2 C 1,6 km/h (1 Bft) 97,87 %
03.09.2016 06:52 13,2 C 93 % 1018,3 hPa 0,0 l/m 0,0 km/h (0 Bft) S 187 2 min 0,000 mm 0,0 UV-I 36 W/m 12,1 C 13,2 C 0,0 km/h (0 Bft) 97,87 %
03.09.2016 06:54 13,1 C 93 % 1018,3 hPa 0,0 l/m 0,0 km/h (0 Bft) S 187 0 min 0,000 mm 0,0 UV-I 38 W/m 12,0 C 13,1 C 0,0 km/h (0 Bft) 94,29 %
03.09.2016 06:56 13,2 C 94 % 1018,3 hPa 0,0 l/m 0,0 km/h (0 Bft) S 187 0 min 0,000 mm 0,0 UV-I 40 W/m 12,3 C 13,2 C 0,0 km/h (0 Bft) 97,92 %
03.09.2016 06:58 13,2 C 94 % 1018,3 hPa 0,0 l/m 0,0 km/h (0 Bft) S 187 0 min 0,000 mm 0,0 UV-I 42 W/m 12,3 C 13,2 C 0,0 km/h (0 Bft) 97,87 %
03.09.2016 07:00 13,3 C 93 % 1018,2 hPa 0,0 l/m 0,1 km/h (0 Bft) S 187 0 min 0,000 mm 0,0 UV-I 42 W/m 12,2 C 13,3 C 1,6 km/h (1 Bft) 95,74 %
03.09.2016 07:02 13,3 C 93 % 1018,3 hPa 0,0 l/m 0,0 km/h (0 Bft) S 187 0 min 0,000 mm 0,0 UV-I 43 W/m 12,2 C 13,3 C 1,6 km/h (1 Bft) 97,87 %
03.09.2016 07:04 13,2 C 93 % 1018,2 hPa 0,0 l/m 0,0 km/h (0 Bft) S 187 0 min 0,000 mm 0,0 UV-I 44 W/m 12,1 C 13,2 C 1,6 km/h (1 Bft) 94,00 %
03.09.2016 07:06 13,2 C 94 % 1018,3 hPa 0,0 l/m 0,1 km/h (0 Bft) S 187 0 min 0,000 mm 0,0 UV-I 45 W/m 12,3 C 13,2 C 1,6 km/h (1 Bft) 97,87 %
03.09.2016 07:08 13,2 C 94 % 1018,3 hPa 0,0 l/m 1,4 km/h (1 Bft) S 187 0 min 0,000 mm 0,0 UV-I 47 W/m 12,3 C 13,2 C 1,6 km/h (1 Bft) 97,87 %
03.09.2016 07:10 13,2 C 94 % 1018,2 hPa 0,0 l/m 0,2 km/h (0 Bft) S 187 0 min 0,000 mm 0,0 UV-I 48 W/m 12,3 C 13,2 C 1,6 km/h (1 Bft) 97,87 %
03.09.2016 07:12 13,3 C 94 % 1018,3 hPa 0,0 l/m 0,0 km/h (0 Bft) S 187 0 min 0,000 mm 0,0 UV-I 51 W/m 12,4 C 13,3 C 0,0 km/h (0 Bft) 96,00 %
03.09.2016 07:14 13,3 C 94 % 1018,2 hPa 0,0 l/m 0,1 km/h (0 Bft) S 187 0 min 0,000 mm 0,0 UV-I 52 W/m 12,4 C 13,3 C 1,6 km/h (1 Bft) 93,62 %
03.09.2016 07:16 13,4 C 94 % 1018,2 hPa 0,0 l/m 0,0 km/h (0 Bft) S 187 0 min 0,000 mm 0,0 UV-I 53 W/m 12,5 C 13,4 C 0,0 km/h (0 Bft) 100,00 %
03.09.2016 07:18 13,5 C 94 % 1018,2 hPa 0,0 l/m 0,5 km/h (0 Bft) S 187 0 min 0,000 mm 0,0 UV-I 55 W/m 12,6 C 13,5 C 1,6 km/h (1 Bft) 95,74 %
03.09.2016 07:20 13,6 C 94 % 1018,2 hPa 0,0 l/m 1,1 km/h (1 Bft) S 187 0 min 0,000 mm 0,0 UV-I 59 W/m 12,7 C 13,6 C 1,6 km/h (1 Bft) 97,87 %
03.09.2016 07:22 13,6 C 94 % 1018,2 hPa 0,0 l/m 0,5 km/h (0 Bft) S 187 0 min 0,000 mm 0,0 UV-I 62 W/m 12,7 C 13,6 C 1,6 km/h (1 Bft) 100,00 %
03.09.2016 07:24 13,7 C 94 % 1018,2 hPa 0,0 l/m 0,3 km/h (0 Bft) S 187 0 min 0,000 mm 0,0 UV-I 67 W/m 12,8 C 13,7 C 1,6 km/h (1 Bft) 98,00 %
03.09.2016 07:26 13,7 C 93 % 1018,2 hPa 0,0 l/m 0,0 km/h (0 Bft) S 187 0 min 0,000 mm 0,0 UV-I 73 W/m 12,6 C 13,7 C 0,0 km/h (0 Bft) 100,00 %
03.09.2016 07:28 13,7 C 93 % 1018,2 hPa 0,0 l/m 0,0 km/h (0 Bft) S 187 0 min 0,000 mm 0,0 UV-I 75 W/m 12,6 C 13,7 C 0,0 km/h (0 Bft) 97,87 %
03.09.2016 07:30 13,8 C 93 % 1018,3 hPa 0,0 l/m 0,0 km/h (0 Bft) S 187 0 min 0,000 mm 0,0 UV-I 76 W/m 12,7 C 13,8 C 0,0 km/h (0 Bft) 100,00 %
03.09.2016 07:32 13,8 C 93 % 1018,2 hPa 0,0 l/m 0,0 km/h (0 Bft) S 187 0 min 0,000 mm 0,0 UV-I 78 W/m 12,7 C 13,8 C 0,0 km/h (0 Bft) 97,87 %
03.09.2016 07:34 13,8 C 93 % 1018,2 hPa 0,0 l/m 0,0 km/h (0 Bft) S 187 0 min 0,000 mm 0,0 UV-I 81 W/m 12,7 C 13,8 C 0,0 km/h (0 Bft) 95,74 %
03.09.2016 07:36 13,9 C 93 % 1018,2 hPa 0,0 l/m 0,0 km/h (0 Bft) S 187 0 min 0,000 mm 0,0 UV-I 85 W/m 12,8 C 13,9 C 0,0 km/h (0 Bft) 100,00 %
03.09.2016 07:38 14,1 C 93 % 1018,2 hPa 0,0 l/m 0,0 km/h (0 Bft) S 187 0 min 0,000 mm 0,0 UV-I 90 W/m 13,0 C 14,1 C 0,0 km/h (0 Bft) 100,00 %
03.09.2016 07:40 14,2 C 93 % 1018,2 hPa 0,0 l/m 0,0 km/h (0 Bft) S 187 0 min 0,000 mm 0,0 UV-I 97 W/m 13,1 C 14,2 C 0,0 km/h (0 Bft) 95,74 %
03.09.2016 07:42 14,2 C 93 % 1018,2 hPa 0,0 l/m 0,0 km/h (0 Bft) S 187 0 min 0,000 mm 0,0 UV-I 104 W/m 13,1 C 14,2 C 0,0 km/h (0 Bft) 97,87 %
03.09.2016 07:44 14,3 C 93 % 1018,2 hPa 0,0 l/m 0,0 km/h (0 Bft) S 187 0 min 0,000 mm 0,0 UV-I 107 W/m 13,2 C 14,3 C 0,0 km/h (0 Bft) 97,87 %
03.09.2016 07:46 14,3 C 93 % 1018,3 hPa 0,0 l/m 0,0 km/h (0 Bft) S 187 0 min 0,000 mm 0,0 UV-I 109 W/m 13,2 C 14,3 C 0,0 km/h (0 Bft) 100,00 %
03.09.2016 07:48 14,3 C 92 % 1018,3 hPa 0,0 l/m 0,0 km/h (0 Bft) S 187 0 min 0,000 mm 0,0 UV-I 112 W/m 13,0 C 14,3 C 0,0 km/h (0 Bft) 100,00 %
03.09.2016 07:50 14,3 C 93 % 1018,3 hPa 0,0 l/m 0,0 km/h (0 Bft) S 187 0 min 0,000 mm 0,0 UV-I 118 W/m 13,2 C 14,3 C 0,0 km/h (0 Bft) 97,87 %
03.09.2016 07:52 14,4 C 93 % 1018,3 hPa 0,0 l/m 0,0 km/h (0 Bft) S 187 0 min 0,000 mm 0,0 UV-I 124 W/m 13,3 C 14,4 C 1,6 km/h (1 Bft) 97,87 %
03.09.2016 07:54 14,5 C 93 % 1018,3 hPa 0,0 l/m 0,0 km/h (0 Bft) S 187 0 min 0,000 mm 0,0 UV-I 132 W/m 13,4 C 14,5 C 0,0 km/h (0 Bft) 100,00 %
03.09.2016 07:56 14,6 C 92 % 1018,3 hPa 0,0 l/m 0,0 km/h (0 Bft) S 187 2 min 0,000 mm 0,0 UV-I 139 W/m 13,3 C 14,6 C 0,0 km/h (0 Bft) 97,87 %
03.09.2016 07:58 14,6 C 93 % 1018,4 hPa 0,0 l/m 0,0 km/h (0 Bft) S 187 0 min 0,000 mm 0,0 UV-I 134 W/m 13,5 C 14,6 C 0,0 km/h (0 Bft) 100,00 %
03.09.2016 08:00 14,7 C 93 % 1018,4 hPa 0,0 l/m 0,0 km/h (0 Bft) S 187 0 min 0,051 mm 0,0 UV-I 135 W/m 13,6 C 14,7 C 0,0 km/h (0 Bft) 100,00 %
03.09.2016 08:02 14,8 C 93 % 1018,4 hPa 0,0 l/m 0,0 km/h (0 Bft) S 187 0 min 0,000 mm 0,0 UV-I 135 W/m 13,7 C 14,8 C 0,0 km/h (0 Bft) 95,74 %
03.09.2016 08:04 14,8 C 92 % 1018,5 hPa 0,0 l/m 0,0 km/h (0 Bft) S 187 0 min 0,000 mm 0,0 UV-I 134 W/m 13,5 C 14,8 C 0,0 km/h (0 Bft) 100,00 %
03.09.2016 08:06 14,8 C 92 % 1018,5 hPa 0,0 l/m 0,0 km/h (0 Bft) S 187 0 min 0,000 mm 0,0 UV-I 132 W/m 13,5 C 14,8 C 0,0 km/h (0 Bft) 95,74 %
03.09.2016 08:08 14,9 C 92 % 1018,6 hPa 0,0 l/m 0,0 km/h (0 Bft) S 187 0 min 0,000 mm 0,0 UV-I 134 W/m 13,6 C 14,9 C 0,0 km/h (0 Bft) 97,87 %
03.09.2016 08:10 14,9 C 92 % 1018,5 hPa 0,0 l/m 0,1 km/h (0 Bft) S 187 0 min 0,000 mm 0,0 UV-I 137 W/m 13,6 C 14,9 C 1,6 km/h (1 Bft) 100,00 %
03.09.2016 08:12 14,9 C 90 % 1018,5 hPa 0,0 l/m 0,0 km/h (0 Bft) S 187 0 min 0,000 mm 0,0 UV-I 138 W/m 13,3 C 14,9 C 0,0 km/h (0 Bft) 100,00 %
03.09.2016 08:14 15,0 C 90 % 1018,5 hPa 0,0 l/m 0,0 km/h (0 Bft) S 187 0 min 0,000 mm 0,0 UV-I 138 W/m 13,4 C 15,0 C 0,0 km/h (0 Bft) 97,87 %
03.09.2016 08:16 15,2 C 91 % 1018,5 hPa 0,0 l/m 0,0 km/h (0 Bft) S 187 0 min 0,000 mm 0,0 UV-I 141 W/m 13,7 C 15,2 C 0,0 km/h (0 Bft) 100,00 %
03.09.2016 08:18 15,2 C 90 % 1018,5 hPa 0,0 l/m 0,0 km/h (0 Bft) S 187 0 min 0,000 mm 0,0 UV-I 145 W/m 13,6 C 15,2 C 1,6 km/h (1 Bft) 96,00 %
03.09.2016 08:20 15,3 C 90 % 1018,5 hPa 0,0 l/m 0,1 km/h (0 Bft) S 187 0 min 0,000 mm 0,0 UV-I 145 W/m 13,7 C 15,3 C 1,6 km/h (1 Bft) 97,87 %
03.09.2016 08:22 15,3 C 89 % 1018,6 hPa 0,0 l/m 0,0 km/h (0 Bft) S 187 0 min 0,000 mm 0,0 UV-I 145 W/m 13,5 C 15,3 C 0,0 km/h (0 Bft) 98,00 %
03.09.2016 08:24 15,4 C 88 % 1018,5 hPa 0,0 l/m 0,1 km/h (0 Bft) S 187 0 min 0,000 mm 0,3 UV-I 145 W/m 13,4 C 15,4 C 1,6 km/h (1 Bft) 100,00 %
03.09.2016 08:26 15,4 C 87 % 1018,5 hPa 0,0 l/m 0,0 km/h (0 Bft) S 187 0 min 0,000 mm 0,5 UV-I 148 W/m 13,2 C 15,4 C 0,0 km/h (0 Bft) 97,87 %
03.09.2016 08:28 15,5 C 88 % 1018,5 hPa 0,0 l/m 0,0 km/h (0 Bft) S 187 0 min 0,000 mm 0,5 UV-I 149 W/m 13,5 C 15,5 C 0,0 km/h (0 Bft) 100,00 %
03.09.2016 08:30 15,6 C 88 % 1018,5 hPa 0,0 l/m 0,0 km/h (0 Bft) S 187 0 min 0,000 mm 0,5 UV-I 152 W/m 13,6 C 15,6 C 0,0 km/h (0 Bft) 97,87 %
03.09.2016 08:32 15,6 C 88 % 1018,5 hPa 0,0 l/m 0,0 km/h (0 Bft) S 187 0 min 0,000 mm 0,5 UV-I 155 W/m 13,6 C 15,6 C 0,0 km/h (0 Bft) 97,87 %
03.09.2016 08:34 15,7 C 88 % 1018,5 hPa 0,0 l/m 0,0 km/h (0 Bft) S 187 0 min 0,000 mm 0,5 UV-I 154 W/m 13,7 C 15,7 C 0,0 km/h (0 Bft) 100,00 %
03.09.2016 08:36 15,8 C 88 % 1018,5 hPa 0,0 l/m 0,1 km/h (0 Bft) S 187 0 min 0,000 mm 0,6 UV-I 153 W/m 13,8 C 15,8 C 1,6 km/h (1 Bft) 97,87 %
03.09.2016 08:38 15,8 C 87 % 1018,5 hPa 0,0 l/m 0,8 km/h (0 Bft) S 187 0 min 0,000 mm 0,6 UV-I 153 W/m 13,6 C 15,8 C 1,6 km/h (1 Bft) 97,87 %
03.09.2016 08:40 15,8 C 87 % 1018,5 hPa 0,0 l/m 0,0 km/h (0 Bft) S 187 0 min 0,000 mm 0,6 UV-I 148 W/m 13,6 C 15,8 C 0,0 km/h (0 Bft) 100,00 %
03.09.2016 08:42 15,9 C 87 % 1018,5 hPa 0,0 l/m 0,0 km/h (0 Bft) S 187 0 min 0,000 mm 0,6 UV-I 152 W/m 13,7 C 15,9 C 0,0 km/h (0 Bft) 100,00 %
03.09.2016 08:44 15,9 C 87 % 1018,5 hPa 0,0 l/m 0,3 km/h (0 Bft) S 187 0 min 0,000 mm 0,6 UV-I 153 W/m 13,7 C 15,9 C 1,6 km/h (1 Bft) 100,00 %
03.09.2016 08:46 15,9 C 87 % 1018,5 hPa 0,0 l/m 1,5 km/h (1 Bft) S 187 0 min 0,000 mm 0,7 UV-I 157 W/m 13,7 C 15,9 C 3,2 km/h (1 Bft) 97,87 %
03.09.2016 08:48 16,0 C 87 % 1018,5 hPa 0,0 l/m 1,5 km/h (1 Bft) S 187 0 min 0,000 mm 0,7 UV-I 168 W/m 13,8 C 16,0 C 3,2 km/h (1 Bft) 97,87 %
03.09.2016 08:50 16,1 C 87 % 1018,5 hPa 0,0 l/m 0,7 km/h (0 Bft) S 187 0 min 0,000 mm 0,7 UV-I 164 W/m 13,9 C 16,1 C 1,6 km/h (1 Bft) 97,87 %
03.09.2016 08:52 16,1 C 87 % 1018,6 hPa 0,0 l/m 0,0 km/h (0 Bft) S 187 0 min 0,000 mm 0,7 UV-I 166 W/m 13,9 C 16,1 C 1,6 km/h (1 Bft) 95,74 %
03.09.2016 08:54 16,2 C 87 % 1018,6 hPa 0,0 l/m 0,0 km/h (0 Bft) S 187 0 min 0,000 mm 0,7 UV-I 168 W/m 14,0 C 16,2 C 0,0 km/h (0 Bft) 97,87 %
03.09.2016 08:56 16,3 C 87 % 1018,6 hPa 0,0 l/m 0,2 km/h (0 Bft) S 187 0 min 0,000 mm 0,8 UV-I 168 W/m 14,1 C 16,3 C 1,6 km/h (1 Bft) 97,92 %
03.09.2016 08:58 16,3 C 86 % 1018,7 hPa 0,0 l/m 0,0 km/h (0 Bft) S 187 0 min 0,000 mm 0,8 UV-I 172 W/m 14,0 C 16,3 C 0,0 km/h (0 Bft) 97,87 %
03.09.2016 09:00 16,3 C 87 % 1018,6 hPa 0,0 l/m 0,5 km/h (0 Bft) S 187 0 min 0,076 mm 0,8 UV-I 180 W/m 14,1 C 16,3 C 1,6 km/h (1 Bft) 95,74 %
03.09.2016 09:02 16,3 C 87 % 1018,7 hPa 0,0 l/m 0,6 km/h (0 Bft) S 187 0 min 0,000 mm 0,9 UV-I 196 W/m 14,1 C 16,3 C 1,6 km/h (1 Bft) 93,62 %
03.09.2016 09:04 16,3 C 88 % 1018,7 hPa 0,0 l/m 0,9 km/h (0 Bft) S 187 0 min 0,000 mm 0,9 UV-I 220 W/m 14,3 C 16,3 C 1,6 km/h (1 Bft) 97,87 %
03.09.2016 09:06 16,3 C 88 % 1018,7 hPa 0,0 l/m 0,1 km/h (0 Bft) S 187 0 min 0,000 mm 1,0 UV-I 231 W/m 14,3 C 16,3 C 1,6 km/h (1 Bft) 97,87 %
03.09.2016 09:08 16,4 C 88 % 1018,8 hPa 0,0 l/m 0,8 km/h (0 Bft) S 187 2 min 0,000 mm 1,0 UV-I 256 W/m 14,4 C 16,4 C 1,6 km/h (1 Bft) 97,87 %
03.09.2016 09:10 16,4 C 87 % 1018,7 hPa 0,0 l/m 0,1 km/h (0 Bft) S 187 2 min 0,000 mm 1,1 UV-I 270 W/m 14,2 C 16,4 C 1,6 km/h (1 Bft) 100,00 %
03.09.2016 09:12 16,5 C 87 % 1018,7 hPa 0,0 l/m 0,1 km/h (0 Bft) S 187 2 min 0,000 mm 1,1 UV-I 276 W/m 14,3 C 16,5 C 1,6 km/h (1 Bft) 95,74 %
03.09.2016 09:14 16,6 C 86 % 1018,7 hPa 0,0 l/m 1,2 km/h (1 Bft) S 187 2 min 0,000 mm 1,2 UV-I 293 W/m 14,2 C 16,6 C 3,2 km/h (1 Bft) 98,00 %
03.09.2016 09:16 16,7 C 87 % 1018,8 hPa 0,0 l/m 1,5 km/h (1 Bft) S 187 2 min 0,000 mm 1,2 UV-I 331 W/m 14,5 C 16,7 C 3,2 km/h (1 Bft) 97,37 %
03.09.2016 09:18 16,8 C 86 % 1018,8 hPa 0,0 l/m 0,2 km/h (0 Bft) S 187 2 min 0,000 mm 1,3 UV-I 356 W/m 14,4 C 16,8 C 1,6 km/h (1 Bft) 91,49 %
03.09.2016 09:20 16,8 C 85 % 1018,8 hPa 0,0 l/m 0,6 km/h (0 Bft) S 187 2 min 0,000 mm 1,3 UV-I 389 W/m 14,3 C 16,8 C 1,6 km/h (1 Bft) 97,87 %
03.09.2016 09:22 17,0 C 86 % 1018,8 hPa 0,0 l/m 0,0 km/h (0 Bft) S 187 2 min 0,000 mm 1,3 UV-I 364 W/m 14,6 C 17,0 C 1,6 km/h (1 Bft) 97,87 %
03.09.2016 09:24 17,1 C 85 % 1018,9 hPa 0,0 l/m 0,2 km/h (0 Bft) S 187 2 min 0,000 mm 1,3 UV-I 340 W/m 14,6 C 17,1 C 1,6 km/h (1 Bft) 95,74 %
03.09.2016 09:26 17,2 C 85 % 1018,9 hPa 0,0 l/m 0,9 km/h (0 Bft) S 187 2 min 0,000 mm 1,3 UV-I 298 W/m 14,7 C 17,2 C 3,2 km/h (1 Bft) 100,00 %
03.09.2016 09:28 17,3 C 85 % 1018,9 hPa 0,0 l/m 0,6 km/h (0 Bft) S 187 2 min 0,000 mm 1,3 UV-I 340 W/m 14,8 C 17,3 C 1,6 km/h (1 Bft) 100,00 %
03.09.2016 09:30 17,4 C 85 % 1018,9 hPa 0,0 l/m 0,3 km/h (0 Bft) S 187 2 min 0,000 mm 1,3 UV-I 353 W/m 14,8 C 17,4 C 1,6 km/h (1 Bft) 97,87 %
03.09.2016 09:32 17,5 C 86 % 1019,0 hPa 0,0 l/m 1,5 km/h (1 Bft) S-SO 155 0 min 0,000 mm 1,3 UV-I 261 W/m 15,1 C 17,5 C 3,2 km/h (1 Bft) 100,00 %
03.09.2016 09:34 17,5 C 84 % 1019,0 hPa 0,0 l/m 0,3 km/h (0 Bft) S-SO 155 0 min 0,000 mm 1,2 UV-I 202 W/m 14,8 C 17,5 C 1,6 km/h (1 Bft) 97,92 %
03.09.2016 09:36 17,5 C 83 % 1019,0 hPa 0,0 l/m 1,1 km/h (1 Bft) S-SO 155 0 min 0,000 mm 1,2 UV-I 216 W/m 14,6 C 17,5 C 1,6 km/h (1 Bft) 100,00 %
03.09.2016 09:38 17,4 C 83 % 1019,0 hPa 0,0 l/m 0,3 km/h (0 Bft) S-SO 155 0 min 0,000 mm 1,2 UV-I 232 W/m 14,5 C 17,4 C 1,6 km/h (1 Bft) 100,00 %
03.09.2016 09:40 17,4 C 84 % 1019,0 hPa 0,0 l/m 0,3 km/h (0 Bft) S-SO 155 0 min 0,000 mm 1,2 UV-I 212 W/m 14,7 C 17,4 C 1,6 km/h (1 Bft) 100,00 %
03.09.2016 09:42 17,4 C 84 % 1019,0 hPa 0,0 l/m 0,8 km/h (0 Bft) S-SO 155 0 min 0,000 mm 1,2 UV-I 182 W/m 14,7 C 17,4 C 1,6 km/h (1 Bft) 97,87 %
03.09.2016 09:44 17,5 C 84 % 1019,0 hPa 0,0 l/m 0,7 km/h (0 Bft) S-SO 165 0 min 0,000 mm 1,1 UV-I 161 W/m 14,8 C 17,5 C 1,6 km/h (1 Bft) 100,00 %
03.09.2016 09:46 17,6 C 84 % 1019,0 hPa 0,0 l/m 1,3 km/h (1 Bft) SW 232 0 min 0,000 mm 1,1 UV-I 144 W/m 14,9 C 17,6 C 3,2 km/h (1 Bft) 95,74 %
03.09.2016 09:48 17,5 C 83 % 1019,1 hPa 0,0 l/m 0,8 km/h (0 Bft) SW 232 0 min 0,000 mm 1,2 UV-I 138 W/m 14,6 C 17,5 C 3,2 km/h (1 Bft) 97,87 %
03.09.2016 09:50 17,5 C 84 % 1019,1 hPa 0,0 l/m 1,4 km/h (1 Bft) SW 232 0 min 0,000 mm 1,2 UV-I 145 W/m 14,8 C 17,5 C 3,2 km/h (1 Bft) 100,00 %
03.09.2016 09:52 17,6 C 84 % 1019,1 hPa 0,0 l/m 0,0 km/h (0 Bft) SW 232 0 min 0,000 mm 1,3 UV-I 146 W/m 14,9 C 17,6 C 1,6 km/h (1 Bft) 100,00 %
03.09.2016 09:54 17,6 C 84 % 1019,1 hPa 0,0 l/m 1,2 km/h (1 Bft) SW 232 0 min 0,000 mm 1,3 UV-I 130 W/m 14,9 C 17,6 C 3,2 km/h (1 Bft) 100,00 %
03.09.2016 09:56 17,5 C 84 % 1019,1 hPa 0,0 l/m 0,6 km/h (0 Bft) SW 232 0 min 0,000 mm 1,3 UV-I 137 W/m 14,8 C 17,5 C 1,6 km/h (1 Bft) 100,00 %
03.09.2016 09:58 17,5 C 84 % 1019,1 hPa 0,0 l/m 0,0 km/h (0 Bft) SW 232 0 min 0,000 mm 1,5 UV-I 162 W/m 14,8 C 17,5 C 1,6 km/h (1 Bft) 100,00 %
03.09.2016 10:00 17,5 C 84 % 1019,1 hPa 0,0 l/m 0,6 km/h (0 Bft) SW 232 0 min 0,000 mm 1,6 UV-I 192 W/m 14,8 C 17,5 C 3,2 km/h (1 Bft) 98,00 %
03.09.2016 10:02 17,7 C 85 % 1019,0 hPa 0,0 l/m 2,6 km/h (1 Bft) SO 145 2 min 0,127 mm 1,9 UV-I 380 W/m 15,1 C 17,7 C 3,2 km/h (1 Bft) 100,00 %
03.09.2016 10:04 17,9 C 83 % 1019,0 hPa 0,0 l/m 2,4 km/h (1 Bft) SO 145 2 min 0,000 mm 2,1 UV-I 423 W/m 15,0 C 17,9 C 3,2 km/h (1 Bft) 100,00 %
03.09.2016 10:06 17,9 C 83 % 1019,0 hPa 0,0 l/m 0,9 km/h (0 Bft) SO 145 2 min 0,000 mm 2,2 UV-I 492 W/m 15,0 C 17,9 C 1,6 km/h (1 Bft) 100,00 %
03.09.2016 10:08 18,1 C 85 % 1019,0 hPa 0,0 l/m 2,4 km/h (1 Bft) SO 137 2 min 0,000 mm 2,2 UV-I 482 W/m 15,5 C 18,1 C 4,8 km/h (1 Bft) 97,56 %
03.09.2016 10:10 18,3 C 83 % 1019,0 hPa 0,0 l/m 3,2 km/h (1 Bft) O-SO 107 2 min 0,000 mm 2,3 UV-I 493 W/m 15,4 C 18,3 C 4,8 km/h (1 Bft) 100,00 %
03.09.2016 10:12 18,4 C 82 % 1019,0 hPa 0,0 l/m 3,7 km/h (1 Bft) O-SO 114 2 min 0,000 mm 2,4 UV-I 511 W/m 15,3 C 18,4 C 6,4 km/h (2 Bft) 100,00 %
03.09.2016 10:14 18,7 C 82 % 1018,9 hPa 0,0 l/m 2,3 km/h (1 Bft) O-SO 114 2 min 0,000 mm 2,4 UV-I 500 W/m 15,6 C 18,7 C 3,2 km/h (1 Bft) 97,87 %
03.09.2016 10:16 18,7 C 80 % 1018,9 hPa 0,0 l/m 1,5 km/h (1 Bft) SO 144 2 min 0,000 mm 2,4 UV-I 480 W/m 15,2 C 18,7 C 4,8 km/h (1 Bft) 97,44 %
03.09.2016 10:18 18,7 C 81 % 1018,9 hPa 0,0 l/m 0,8 km/h (0 Bft) SO 144 2 min 0,000 mm 2,4 UV-I 486 W/m 15,4 C 18,7 C 3,2 km/h (1 Bft) 95,74 %
03.09.2016 10:20 18,8 C 80 % 1018,9 hPa 0,0 l/m 0,4 km/h (0 Bft) SO 144 2 min 0,000 mm 2,5 UV-I 511 W/m 15,3 C 18,8 C 1,6 km/h (1 Bft) 100,00 %
03.09.2016 10:22 18,9 C 79 % 1018,9 hPa 0,0 l/m 1,3 km/h (1 Bft) SW 223 2 min 0,000 mm 2,5 UV-I 503 W/m 15,2 C 18,9 C 3,2 km/h (1 Bft) 100,00 %
03.09.2016 10:24 19,0 C 80 % 1018,9 hPa 0,0 l/m 2,6 km/h (1 Bft) SW 223 2 min 0,000 mm 2,6 UV-I 519 W/m 15,5 C 19,0 C 4,8 km/h (1 Bft) 97,87 %
03.09.2016 10:26 19,1 C 80 % 1018,9 hPa 0,0 l/m 2,2 km/h (1 Bft) S 188 2 min 0,000 mm 2,7 UV-I 540 W/m 15,6 C 19,1 C 4,8 km/h (1 Bft) 95,74 %
03.09.2016 10:28 19,1 C 77 % 1018,9 hPa 0,0 l/m 4,4 km/h (1 Bft) S 179 2 min 0,000 mm 2,7 UV-I 543 W/m 15,0 C 19,1 C 8,0 km/h (2 Bft) 96,00 %
03.09.2016 10:30 19,2 C 77 % 1018,9 hPa 0,0 l/m 2,9 km/h (1 Bft) S-SO 165 2 min 0,000 mm 2,8 UV-I 550 W/m 15,1 C 19,2 C 6,4 km/h (2 Bft) 100,00 %
03.09.2016 10:32 19,3 C 77 % 1018,9 hPa 0,0 l/m 0,7 km/h (0 Bft) S-SO 164 2 min 0,000 mm 2,8 UV-I 560 W/m 15,2 C 19,3 C 1,6 km/h (1 Bft) 100,00 %
03.09.2016 10:34 19,4 C 78 % 1018,8 hPa 0,0 l/m 1,0 km/h (0 Bft) S 182 2 min 0,000 mm 2,9 UV-I 565 W/m 15,5 C 19,4 C 3,2 km/h (1 Bft) 100,00 %
03.09.2016 10:36 19,6 C 77 % 1018,8 hPa 0,0 l/m 3,0 km/h (1 Bft) S-SW 210 2 min 0,000 mm 2,9 UV-I 570 W/m 15,5 C 19,6 C 4,8 km/h (1 Bft) 100,00 %
03.09.2016 10:38 19,8 C 78 % 1018,9 hPa 0,0 l/m 1,7 km/h (1 Bft) S-SW 202 2 min 0,000 mm 3,0 UV-I 577 W/m 15,8 C 19,8 C 3,2 km/h (1 Bft) 100,00 %
03.09.2016 10:40 20,0 C 77 % 1018,9 hPa 0,0 l/m 3,2 km/h (1 Bft) S-SO 148 2 min 0,000 mm 3,0 UV-I 580 W/m 15,8 C 20,0 C 4,8 km/h (1 Bft) 100,00 %
03.09.2016 10:42 20,1 C 76 % 1018,9 hPa 0,0 l/m 1,1 km/h (1 Bft) S-SO 148 2 min 0,000 mm 3,1 UV-I 580 W/m 15,7 C 20,1 C 3,2 km/h (1 Bft) 97,87 %
03.09.2016 10:44 20,2 C 78 % 1019,0 hPa 0,0 l/m 0,3 km/h (0 Bft) S 191 2 min 0,000 mm 3,1 UV-I 580 W/m 16,2 C 20,2 C 1,6 km/h (1 Bft) 95,74 %
03.09.2016 10:46 20,6 C 77 % 1019,0 hPa 0,0 l/m 2,0 km/h (1 Bft) S-SW 193 2 min 0,000 mm 3,1 UV-I 590 W/m 16,4 C 20,6 C 4,8 km/h (1 Bft) 97,87 %
03.09.2016 10:48 20,6 C 74 % 1019,0 hPa 0,0 l/m 2,8 km/h (1 Bft) S-SO 165 2 min 0,000 mm 3,1 UV-I 583 W/m 15,8 C 20,6 C 4,8 km/h (1 Bft) 97,87 %
03.09.2016 10:50 20,5 C 74 % 1019,0 hPa 0,0 l/m 2,8 km/h (1 Bft) S 171 2 min 0,000 mm 3,2 UV-I 584 W/m 15,7 C 20,5 C 6,4 km/h (2 Bft) 97,87 %
03.09.2016 10:52 20,5 C 74 % 1019,0 hPa 0,0 l/m 2,1 km/h (1 Bft) S-SO 168 2 min 0,000 mm 3,2 UV-I 600 W/m 15,7 C 20,5 C 4,8 km/h (1 Bft) 97,22 %
03.09.2016 10:54 20,6 C 75 % 1019,0 hPa 0,0 l/m 1,5 km/h (1 Bft) S-SO 168 2 min 0,000 mm 3,3 UV-I 611 W/m 16,0 C 20,6 C 3,2 km/h (1 Bft) 98,39 %
03.09.2016 10:56 20,8 C 76 % 1019,0 hPa 0,0 l/m 1,9 km/h (1 Bft) S-SO 167 2 min 0,000 mm 3,3 UV-I 621 W/m 16,4 C 20,8 C 6,4 km/h (2 Bft) 97,87 %
03.09.2016 10:58 20,8 C 74 % 1019,0 hPa 0,0 l/m 2,5 km/h (1 Bft) S-SO 167 2 min 0,000 mm 3,3 UV-I 616 W/m 16,0 C 20,8 C 4,8 km/h (1 Bft) 95,74 %
03.09.2016 11:00 20,8 C 74 % 1019,0 hPa 0,0 l/m 1,9 km/h (1 Bft) W-SW 242 2 min 0,305 mm 3,4 UV-I 616 W/m 16,0 C 20,8 C 6,4 km/h (2 Bft) 95,83 %
03.09.2016 11:02 20,9 C 76 % 1019,1 hPa 0,0 l/m 3,0 km/h (1 Bft) W 269 2 min 0,000 mm 3,4 UV-I 610 W/m 16,5 C 20,9 C 6,4 km/h (2 Bft) 98,00 %
03.09.2016 11:04 21,0 C 75 % 1019,0 hPa 0,0 l/m 6,4 km/h (2 Bft) W-SW 254 2 min 0,000 mm 3,4 UV-I 611 W/m 16,4 C 21,0 C 11,3 km/h (2 Bft) 97,87 %
03.09.2016 11:06 21,0 C 74 % 1019,0 hPa 0,0 l/m 6,1 km/h (2 Bft) W 265 2 min 0,000 mm 3,5 UV-I 631 W/m 16,2 C 21,0 C 9,7 km/h (2 Bft) 97,37 %
03.09.2016 11:08 21,0 C 74 % 1019,0 hPa 0,0 l/m 4,9 km/h (1 Bft) W-NW 286 2 min 0,000 mm 3,6 UV-I 639 W/m 16,2 C 21,0 C 9,7 km/h (2 Bft) 97,87 %
03.09.2016 11:10 21,1 C 73 % 1019,0 hPa 0,0 l/m 1,7 km/h (1 Bft) S-SW 202 2 min 0,000 mm 3,6 UV-I 643 W/m 16,1 C 21,1 C 4,8 km/h (1 Bft) 97,92 %
03.09.2016 11:12 21,1 C 73 % 1019,1 hPa 0,0 l/m 1,6 km/h (1 Bft) S-SW 192 2 min 0,000 mm 3,7 UV-I 648 W/m 16,1 C 21,1 C 3,2 km/h (1 Bft) 96,00 %
03.09.2016 11:14 21,2 C 75 % 1019,1 hPa 0,0 l/m 1,2 km/h (1 Bft) S-SW 192 2 min 0,000 mm 3,7 UV-I 649 W/m 16,6 C 21,2 C 4,8 km/h (1 Bft) 97,87 %
03.09.2016 11:16 21,3 C 72 % 1019,0 hPa 0,0 l/m 2,9 km/h (1 Bft) W-SW 257 2 min 0,000 mm 3,7 UV-I 643 W/m 16,0 C 21,3 C 4,8 km/h (1 Bft) 97,87 %
03.09.2016 11:18 21,4 C 71 % 1019,0 hPa 0,0 l/m 2,5 km/h (1 Bft) S-SO 157 2 min 0,000 mm 3,7 UV-I 640 W/m 15,9 C 21,4 C 6,4 km/h (2 Bft) 97,87 %
03.09.2016 11:20 21,6 C 73 % 1019,0 hPa 0,0 l/m 4,2 km/h (1 Bft) S-SW 193 2 min 0,000 mm 3,8 UV-I 664 W/m 16,5 C 21,6 C 6,4 km/h (2 Bft) 97,87 %
03.09.2016 11:22 21,6 C 71 % 1018,9 hPa 0,0 l/m 2,1 km/h (1 Bft) S-SW 193 2 min 0,000 mm 3,9 UV-I 665 W/m 16,1 C 21,6 C 3,2 km/h (1 Bft) 97,87 %
03.09.2016 11:24 21,7 C 71 % 1018,9 hPa 0,0 l/m 3,2 km/h (1 Bft) S-SW 200 2 min 0,000 mm 3,9 UV-I 679 W/m 16,2 C 21,7 C 4,8 km/h (1 Bft) 100,00 %
03.09.2016 11:26 21,8 C 73 % 1019,0 hPa 0,0 l/m 3,1 km/h (1 Bft) W 269 2 min 0,000 mm 4,0 UV-I 700 W/m 16,7 C 21,8 C 4,8 km/h (1 Bft) 100,00 %
03.09.2016 11:28 22,0 C 70 % 1018,9 hPa 0,0 l/m 4,2 km/h (1 Bft) SW 219 2 min 0,000 mm 4,0 UV-I 721 W/m 16,3 C 22,0 C 6,4 km/h (2 Bft) 98,08 %
03.09.2016 11:30 22,2 C 68 % 1018,9 hPa 0,0 l/m 2,6 km/h (1 Bft) W 276 2 min 0,000 mm 4,0 UV-I 707 W/m 16,0 C 22,2 C 4,8 km/h (1 Bft) 100,00 %
03.09.2016 11:32 22,3 C 71 % 1018,9 hPa 0,0 l/m 1,0 km/h (0 Bft) W 276 2 min 0,000 mm 3,6 UV-I 643 W/m 16,8 C 22,3 C 3,2 km/h (1 Bft) 100,00 %
03.09.2016 11:34 22,4 C 69 % 1018,9 hPa 0,0 l/m 2,5 km/h (1 Bft) SO 145 2 min 0,000 mm 3,8 UV-I 482 W/m 16,4 C 22,4 C 6,4 km/h (2 Bft) 100,00 %
03.09.2016 11:36 22,4 C 72 % 1018,9 hPa 0,0 l/m 1,8 km/h (1 Bft) S-SO 153 2 min 0,000 mm 3,7 UV-I 624 W/m 17,1 C 22,4 C 3,2 km/h (1 Bft) 100,00 %
03.09.2016 11:38 22,4 C 67 % 1018,9 hPa 0,0 l/m 4,2 km/h (1 Bft) S 181 2 min 0,000 mm 4,1 UV-I 397 W/m 16,0 C 22,4 C 8,0 km/h (2 Bft) 97,87 %
03.09.2016 11:40 22,4 C 67 % 1018,9 hPa 0,0 l/m 5,5 km/h (1 Bft) SW 227 2 min 0,000 mm 4,2 UV-I 397 W/m 16,0 C 22,4 C 8,0 km/h (2 Bft) 100,00 %
03.09.2016 11:42 22,3 C 68 % 1018,9 hPa 0,0 l/m 5,3 km/h (1 Bft) S 185 2 min 0,000 mm 4,2 UV-I 550 W/m 16,1 C 22,3 C 8,0 km/h (2 Bft) 98,00 %
03.09.2016 11:44 22,3 C 71 % 1018,9 hPa 0,0 l/m 3,1 km/h (1 Bft) SW 234 2 min 0,000 mm 4,5 UV-I 696 W/m 16,8 C 22,3 C 8,0 km/h (2 Bft) 95,74 %
03.09.2016 11:46 22,3 C 69 % 1018,9 hPa 0,0 l/m 3,4 km/h (1 Bft) SW 234 2 min 0,000 mm 4,5 UV-I 767 W/m 16,3 C 22,3 C 6,4 km/h (2 Bft) 100,00 %
03.09.2016 11:48 22,6 C 69 % 1018,8 hPa 0,0 l/m 2,5 km/h (1 Bft) SW 228 2 min 0,000 mm 4,5 UV-I 769 W/m 16,6 C 22,6 C 6,4 km/h (2 Bft) 95,74 %
03.09.2016 11:50 22,9 C 68 % 1018,8 hPa 0,0 l/m 6,2 km/h (2 Bft) S-SW 209 2 min 0,000 mm 4,5 UV-I 758 W/m 16,7 C 22,9 C 11,3 km/h (2 Bft) 97,87 %
03.09.2016 11:52 23,1 C 64 % 1018,8 hPa 0,0 l/m 2,3 km/h (1 Bft) S-SO 157 2 min 0,000 mm 4,4 UV-I 748 W/m 15,9 C 23,1 C 6,4 km/h (2 Bft) 100,00 %
03.09.2016 11:54 23,2 C 65 % 1018,7 hPa 0,0 l/m 3,0 km/h (1 Bft) S-SW 207 2 min 0,000 mm 4,4 UV-I 729 W/m 16,2 C 23,2 C 6,4 km/h (2 Bft) 97,87 %
03.09.2016 11:56 23,4 C 65 % 1018,7 hPa 0,0 l/m 4,8 km/h (1 Bft) S 185 2 min 0,000 mm 4,1 UV-I 699 W/m 16,4 C 23,4 C 8,0 km/h (2 Bft) 97,87 %
03.09.2016 11:58 23,3 C 63 % 1018,7 hPa 0,0 l/m 4,6 km/h (1 Bft) W-SW 246 2 min 0,000 mm 4,0 UV-I 623 W/m 15,9 C 23,3 C 9,7 km/h (2 Bft) 100,00 %
03.09.2016 12:00 23,3 C 65 % 1018,6 hPa 0,0 l/m 3,6 km/h (1 Bft) W-SW 240 2 min 0,407 mm 3,8 UV-I 590 W/m 16,3 C 23,3 C 6,4 km/h (2 Bft) 100,00 %
03.09.2016 12:02 23,2 C 64 % 1018,6 hPa 0,0 l/m 2,4 km/h (1 Bft) W 271 2 min 0,000 mm 4,2 UV-I 666 W/m 16,0 C 23,2 C 4,8 km/h (1 Bft) 100,00 %
03.09.2016 12:04 23,1 C 65 % 1018,6 hPa 0,0 l/m 1,4 km/h (1 Bft) W 271 2 min 0,000 mm 4,0 UV-I 707 W/m 16,2 C 23,1 C 3,2 km/h (1 Bft) 100,00 %
03.09.2016 12:06 23,1 C 68 % 1018,6 hPa 0,0 l/m 2,5 km/h (1 Bft) N-NO 26 2 min 0,000 mm 4,2 UV-I 693 W/m 16,9 C 23,1 C 4,8 km/h (1 Bft) 100,00 %
03.09.2016 12:08 23,3 C 65 % 1018,5 hPa 0,0 l/m 0,5 km/h (0 Bft) N-NO 26 2 min 0,000 mm 4,5 UV-I 714 W/m 16,3 C 23,3 C 1,6 km/h (1 Bft) 100,00 %
03.09.2016 12:10 23,2 C 66 % 1018,5 hPa 0,0 l/m 0,5 km/h (0 Bft) N-NO 24 2 min 0,000 mm 4,5 UV-I 727 W/m 16,5 C 23,2 C 1,6 km/h (1 Bft) 97,22 %
03.09.2016 12:12 23,3 C 64 % 1018,5 hPa 0,0 l/m 2,3 km/h (1 Bft) SW 233 2 min 0,000 mm 4,6 UV-I 729 W/m 16,1 C 23,3 C 6,4 km/h (2 Bft) 100,00 %
03.09.2016 12:14 23,7 C 65 % 1018,5 hPa 0,0 l/m 3,6 km/h (1 Bft) S-SW 212 2 min 0,000 mm 4,5 UV-I 720 W/m 16,7 C 23,7 C 6,4 km/h (2 Bft) 100,00 %
03.09.2016 12:16 23,7 C 64 % 1018,5 hPa 0,0 l/m 3,3 km/h (1 Bft) W-SW 248 2 min 0,000 mm 4,6 UV-I 728 W/m 16,5 C 23,7 C 4,8 km/h (1 Bft) 100,00 %
03.09.2016 12:18 23,7 C 61 % 1018,5 hPa 0,0 l/m 3,8 km/h (1 Bft) SW 229 2 min 0,000 mm 4,6 UV-I 721 W/m 15,7 C 23,7 C 6,4 km/h (2 Bft) 100,00 %
03.09.2016 12:20 23,7 C 62 % 1018,5 hPa 0,0 l/m 2,3 km/h (1 Bft) W-NW 288 2 min 0,000 mm 4,6 UV-I 732 W/m 16,0 C 23,7 C 4,8 km/h (1 Bft) 100,00 %
03.09.2016 12:22 23,7 C 62 % 1018,4 hPa 0,0 l/m 1,7 km/h (1 Bft) NW 307 2 min 0,000 mm 4,7 UV-I 749 W/m 16,0 C 23,7 C 3,2 km/h (1 Bft) 100,00 %
03.09.2016 12:24 23,8 C 63 % 1018,4 hPa 0,0 l/m 2,9 km/h (1 Bft) W 261 2 min 0,000 mm 4,5 UV-I 699 W/m 16,3 C 23,8 C 12,9 km/h (3 Bft) 97,87 %
03.09.2016 12:26 23,9 C 61 % 1018,3 hPa 0,0 l/m 4,6 km/h (1 Bft) W-SW 246 2 min 0,000 mm 4,5 UV-I 660 W/m 15,9 C 23,9 C 8,0 km/h (2 Bft) 97,87 %
03.09.2016 12:28 24,0 C 60 % 1018,3 hPa 0,0 l/m 9,0 km/h (2 Bft) W-SW 250 2 min 0,000 mm 4,4 UV-I 635 W/m 15,7 C 23,3 C 14,5 km/h (3 Bft) 100,00 %
03.09.2016 12:30 23,9 C 61 % 1018,3 hPa 0,0 l/m 6,0 km/h (2 Bft) W-SW 248 2 min 0,000 mm 4,4 UV-I 651 W/m 15,9 C 23,9 C 11,3 km/h (2 Bft) 98,00 %
03.09.2016 12:32 23,8 C 60 % 1018,2 hPa 0,0 l/m 3,0 km/h (1 Bft) S 184 2 min 0,000 mm 4,4 UV-I 671 W/m 15,6 C 23,8 C 4,8 km/h (1 Bft) 100,00 %
03.09.2016 12:34 23,8 C 60 % 1018,2 hPa 0,0 l/m 2,0 km/h (1 Bft) S-SO 155 2 min 0,000 mm 4,5 UV-I 685 W/m 15,6 C 23,8 C 4,8 km/h (1 Bft) 100,00 %
03.09.2016 12:36 23,7 C 61 % 1018,2 hPa 0,0 l/m 1,6 km/h (1 Bft) S-SO 155 2 min 0,000 mm 4,5 UV-I 680 W/m 15,7 C 23,7 C 3,2 km/h (1 Bft) 97,14 %
03.09.2016 12:38 23,6 C 64 % 1018,1 hPa 0,0 l/m 1,3 km/h (1 Bft) S-SO 153 2 min 0,000 mm 4,5 UV-I 679 W/m 16,4 C 23,6 C 3,2 km/h (1 Bft) 97,87 %
03.09.2016 12:40 23,7 C 60 % 1018,1 hPa 0,0 l/m 1,6 km/h (1 Bft) S-SO 153 2 min 0,000 mm 4,6 UV-I 688 W/m 15,5 C 23,7 C 3,2 km/h (1 Bft) 96,00 %
03.09.2016 12:42 23,7 C 61 % 1018,1 hPa 0,0 l/m 4,2 km/h (1 Bft) S-SW 193 2 min 0,000 mm 4,5 UV-I 666 W/m 15,7 C 23,7 C 8,0 km/h (2 Bft) 97,87 %
03.09.2016 12:44 24,0 C 61 % 1018,1 hPa 0,0 l/m 1,9 km/h (1 Bft) S-SW 213 2 min 0,000 mm 4,7 UV-I 721 W/m 16,0 C 24,0 C 4,8 km/h (1 Bft) 97,87 %
03.09.2016 12:46 24,1 C 61 % 1018,1 hPa 0,0 l/m 3,0 km/h (1 Bft) W-SW 240 2 min 0,000 mm 4,9 UV-I 761 W/m 16,1 C 24,1 C 8,0 km/h (2 Bft) 95,74 %
03.09.2016 12:48 24,2 C 59 % 1018,1 hPa 0,0 l/m 6,5 km/h (2 Bft) S-SW 198 2 min 0,000 mm 5,0 UV-I 790 W/m 15,7 C 24,2 C 11,3 km/h (2 Bft) 97,87 %
03.09.2016 12:50 24,2 C 59 % 1018,0 hPa 0,0 l/m 2,6 km/h (1 Bft) S-SW 209 2 min 0,000 mm 4,9 UV-I 756 W/m 15,7 C 24,2 C 6,4 km/h (2 Bft) 97,92 %
03.09.2016 12:52 24,3 C 62 % 1018,1 hPa 0,0 l/m 3,6 km/h (1 Bft) SW 223 2 min 0,000 mm 4,6 UV-I 676 W/m 16,5 C 24,3 C 8,0 km/h (2 Bft) 97,87 %
03.09.2016 12:54 24,6 C 60 % 1018,1 hPa 0,0 l/m 5,8 km/h (2 Bft) S-SW 198 2 min 0,000 mm 4,6 UV-I 687 W/m 16,3 C 24,6 C 9,7 km/h (2 Bft) 93,62 %
03.09.2016 12:56 24,4 C 60 % 1018,1 hPa 0,0 l/m 3,7 km/h (1 Bft) S-SO 163 2 min 0,000 mm 4,7 UV-I 686 W/m 16,1 C 24,4 C 8,0 km/h (2 Bft) 97,96 %
03.09.2016 12:58 24,4 C 59 % 1018,1 hPa 0,0 l/m 1,5 km/h (1 Bft) S 181 2 min 0,000 mm 4,9 UV-I 723 W/m 15,9 C 24,4 C 3,2 km/h (1 Bft) 97,87 %
03.09.2016 13:00 24,3 C 60 % 1018,1 hPa 0,0 l/m 2,0 km/h (1 Bft) S 184 2 min 0,431 mm 4,9 UV-I 752 W/m 16,0 C 24,3 C 6,4 km/h (2 Bft) 95,74 %
03.09.2016 13:02 24,4 C 60 % 1018,0 hPa 0,0 l/m 3,7 km/h (1 Bft) SW 231 2 min 0,000 mm 4,9 UV-I 765 W/m 16,1 C 24,4 C 8,0 km/h (2 Bft) 97,87 %
03.09.2016 13:04 24,6 C 60 % 1018,1 hPa 0,0 l/m 7,2 km/h (2 Bft) SW 236 2 min 0,000 mm 4,8 UV-I 775 W/m 16,3 C 24,4 C 12,9 km/h (3 Bft) 97,87 %
03.09.2016 13:06 24,7 C 62 % 1018,0 hPa 0,0 l/m 6,0 km/h (2 Bft) W-SW 256 2 min 0,000 mm 4,8 UV-I 630 W/m 16,9 C 24,7 C 9,7 km/h (2 Bft) 97,87 %
03.09.2016 13:08 24,6 C 58 % 1018,0 hPa 0,0 l/m 2,6 km/h (1 Bft) S-SW 204 2 min 0,000 mm 4,9 UV-I 748 W/m 15,8 C 24,6 C 8,0 km/h (2 Bft) 97,87 %
03.09.2016 13:10 24,6 C 58 % 1018,0 hPa 0,0 l/m 2,0 km/h (1 Bft) S 169 2 min 0,000 mm 4,9 UV-I 767 W/m 15,8 C 24,6 C 6,4 km/h (2 Bft) 97,14 %
03.09.2016 13:12 24,8 C 61 % 1018,0 hPa 0,0 l/m 4,7 km/h (1 Bft) W 259 2 min 0,000 mm 4,9 UV-I 750 W/m 16,8 C 24,8 C 9,7 km/h (2 Bft) 98,00 %
03.09.2016 13:14 24,9 C 58 % 1018,0 hPa 0,0 l/m 6,1 km/h (2 Bft) W-NW 300 2 min 0,000 mm 4,9 UV-I 754 W/m 16,1 C 24,9 C 11,3 km/h (2 Bft) 100,00 %
03.09.2016 13:16 24,9 C 58 % 1018,0 hPa 0,0 l/m 3,1 km/h (1 Bft) N-NO 30 2 min 0,000 mm 4,8 UV-I 750 W/m 16,1 C 24,9 C 6,4 km/h (2 Bft) 100,00 %
03.09.2016 13:18 25,2 C 58 % 1018,0 hPa 0,0 l/m 3,5 km/h (1 Bft) S 188 2 min 0,000 mm 4,7 UV-I 728 W/m 16,3 C 25,2 C 8,0 km/h (2 Bft) 95,74 %
03.09.2016 13:20 25,2 C 60 % 1018,0 hPa 0,0 l/m 3,4 km/h (1 Bft) NW 324 2 min 0,000 mm 4,6 UV-I 689 W/m 16,9 C 25,2 C 8,0 km/h (2 Bft) 100,00 %
03.09.2016 13:22 25,2 C 60 % 1018,0 hPa 0,0 l/m 3,2 km/h (1 Bft) NW 307 2 min 0,000 mm 4,4 UV-I 622 W/m 16,9 C 25,2 C 6,4 km/h (2 Bft) 97,87 %
03.09.2016 13:24 25,1 C 60 % 1017,9 hPa 0,0 l/m 2,3 km/h (1 Bft) W-NW 300 2 min 0,000 mm 4,4 UV-I 624 W/m 16,8 C 25,1 C 6,4 km/h (2 Bft) 97,56 %
03.09.2016 13:26 25,2 C 60 % 1017,9 hPa 0,0 l/m 0,9 km/h (0 Bft) W-NW 300 2 min 0,000 mm 4,5 UV-I 631 W/m 16,9 C 25,2 C 3,2 km/h (1 Bft) 98,00 %
03.09.2016 13:28 25,3 C 59 % 1017,9 hPa 0,0 l/m 4,7 km/h (1 Bft) W 266 2 min 0,000 mm 4,7 UV-I 703 W/m 16,7 C 25,3 C 6,4 km/h (2 Bft) 97,92 %
03.09.2016 13:30 25,2 C 61 % 1017,9 hPa 0,0 l/m 3,8 km/h (1 Bft) NW 310 2 min 0,000 mm 4,8 UV-I 749 W/m 17,1 C 25,2 C 11,3 km/h (2 Bft) 97,87 %
03.09.2016 13:32 25,3 C 59 % 1017,9 hPa 0,0 l/m 2,4 km/h (1 Bft) NO 38 2 min 0,000 mm 4,8 UV-I 756 W/m 16,7 C 25,3 C 6,4 km/h (2 Bft) 100,00 %
03.09.2016 13:34 25,5 C 61 % 1017,8 hPa 0,0 l/m 3,6 km/h (1 Bft) N 349 2 min 0,000 mm 4,8 UV-I 754 W/m 17,4 C 25,5 C 8,0 km/h (2 Bft) 100,00 %
03.09.2016 13:36 25,7 C 59 % 1017,8 hPa 0,0 l/m 2,5 km/h (1 Bft) N-NW 327 2 min 0,000 mm 4,9 UV-I 735 W/m 17,1 C 25,7 C 4,8 km/h (1 Bft) 100,00 %
03.09.2016 13:38 25,7 C 57 % 1017,7 hPa 0,0 l/m 2,2 km/h (1 Bft) NW 321 2 min 0,000 mm 4,7 UV-I 734 W/m 16,5 C 25,7 C 4,8 km/h (1 Bft) 97,87 %
03.09.2016 13:40 25,5 C 57 % 1017,7 hPa 0,0 l/m 2,0 km/h (1 Bft) N 5 2 min 0,000 mm 4,7 UV-I 734 W/m 16,3 C 25,5 C 3,2 km/h (1 Bft) 97,87 %
03.09.2016 13:42 25,6 C 59 % 1017,7 hPa 0,0 l/m 3,4 km/h (1 Bft) N-NO 15 2 min 0,000 mm 4,7 UV-I 746 W/m 17,0 C 25,6 C 6,4 km/h (2 Bft) 100,00 %
03.09.2016 13:44 25,6 C 60 % 1017,7 hPa 0,0 l/m 4,2 km/h (1 Bft) N-NO 24 2 min 0,000 mm 4,2 UV-I 637 W/m 17,2 C 25,6 C 8,0 km/h (2 Bft) 100,00 %
03.09.2016 13:46 25,7 C 58 % 1017,7 hPa 0,0 l/m 3,2 km/h (1 Bft) S-SW 207 2 min 0,000 mm 4,4 UV-I 572 W/m 16,8 C 25,7 C 6,4 km/h (2 Bft) 100,00 %
03.09.2016 13:48 25,6 C 58 % 1017,7 hPa 0,0 l/m 5,1 km/h (1 Bft) W 264 2 min 0,000 mm 4,6 UV-I 736 W/m 16,7 C 25,6 C 11,3 km/h (2 Bft) 100,00 %
03.09.2016 13:50 25,7 C 58 % 1017,6 hPa 0,0 l/m 5,5 km/h (1 Bft) S-SW 192 2 min 0,000 mm 4,7 UV-I 758 W/m 16,8 C 25,7 C 9,7 km/h (2 Bft) 100,00 %
03.09.2016 13:52 25,6 C 55 % 1017,6 hPa 0,0 l/m 2,1 km/h (1 Bft) S-SO 168 2 min 0,000 mm 4,2 UV-I 727 W/m 15,9 C 25,6 C 6,4 km/h (2 Bft) 100,00 %
03.09.2016 13:54 25,4 C 58 % 1017,6 hPa 0,0 l/m 2,6 km/h (1 Bft) N 355 2 min 0,000 mm 4,2 UV-I 534 W/m 16,5 C 25,4 C 6,4 km/h (2 Bft) 97,87 %
03.09.2016 13:56 25,6 C 58 % 1017,5 hPa 0,0 l/m 1,3 km/h (1 Bft) N-NW 342 2 min 0,000 mm 4,6 UV-I 742 W/m 16,7 C 25,6 C 3,2 km/h (1 Bft) 100,00 %
03.09.2016 13:58 25,9 C 57 % 1017,5 hPa 0,0 l/m 4,2 km/h (1 Bft) W-NW 292 2 min 0,000 mm 4,3 UV-I 713 W/m 16,7 C 25,9 C 9,7 km/h (2 Bft) 100,00 %
03.09.2016 14:00 25,8 C 57 % 1017,5 hPa 0,0 l/m 6,0 km/h (2 Bft) W-NW 300 2 min 0,458 mm 3,8 UV-I 600 W/m 16,6 C 25,8 C 9,7 km/h (2 Bft) 100,00 %
03.09.2016 14:02 25,6 C 57 % 1017,4 hPa 0,0 l/m 3,1 km/h (1 Bft) N-NW 343 2 min 0,000 mm 3,7 UV-I 693 W/m 16,4 C 25,6 C 6,4 km/h (2 Bft) 100,00 %
03.09.2016 14:04 25,6 C 58 % 1017,4 hPa 0,0 l/m 2,5 km/h (1 Bft) NW 319 2 min 0,000 mm 3,3 UV-I 459 W/m 16,7 C 25,6 C 4,8 km/h (1 Bft) 100,00 %
03.09.2016 14:06 25,4 C 57 % 1017,4 hPa 0,0 l/m 1,5 km/h (1 Bft) NW 319 2 min 0,000 mm 3,6 UV-I 444 W/m 16,2 C 25,4 C 3,2 km/h (1 Bft) 97,96 %
03.09.2016 14:08 25,5 C 58 % 1017,3 hPa 0,0 l/m 2,3 km/h (1 Bft) N-NO 18 2 min 0,000 mm 3,5 UV-I 462 W/m 16,6 C 25,5 C 4,8 km/h (1 Bft) 97,44 %
03.09.2016 14:10 25,4 C 57 % 1017,3 hPa 0,0 l/m 4,3 km/h (1 Bft) SW 230 2 min 0,000 mm 3,1 UV-I 462 W/m 16,2 C 25,4 C 8,0 km/h (2 Bft) 98,00 %
03.09.2016 14:12 25,4 C 58 % 1017,3 hPa 0,0 l/m 4,6 km/h (1 Bft) W-SW 257 2 min 0,000 mm 3,5 UV-I 462 W/m 16,5 C 25,4 C 11,3 km/h (2 Bft) 100,00 %
03.09.2016 14:14 25,7 C 59 % 1017,3 hPa 0,0 l/m 1,0 km/h (0 Bft) W-SW 257 2 min 0,000 mm 4,1 UV-I 634 W/m 17,1 C 25,7 C 1,6 km/h (1 Bft) 100,00 %
03.09.2016 14:16 25,9 C 57 % 1017,4 hPa 0,0 l/m 4,6 km/h (1 Bft) W-SW 243 2 min 0,000 mm 3,5 UV-I 765 W/m 16,7 C 25,9 C 6,4 km/h (2 Bft) 100,00 %
03.09.2016 14:18 25,9 C 56 % 1017,3 hPa 0,0 l/m 9,1 km/h (2 Bft) W-SW 257 2 min 0,000 mm 3,1 UV-I 534 W/m 16,4 C 25,3 C 14,5 km/h (3 Bft) 97,87 %
03.09.2016 14:20 25,7 C 57 % 1017,3 hPa 0,0 l/m 10,2 km/h (2 Bft) W 265 0 min 0,000 mm 2,9 UV-I 350 W/m 16,5 C 24,9 C 16,1 km/h (3 Bft) 100,00 %
03.09.2016 14:22 25,6 C 57 % 1017,3 hPa 0,0 l/m 5,0 km/h (1 Bft) W 263 0 min 0,000 mm 3,0 UV-I 368 W/m 16,4 C 25,6 C 9,7 km/h (2 Bft) 100,00 %
03.09.2016 14:24 25,5 C 59 % 1017,4 hPa 0,0 l/m 7,5 km/h (2 Bft) W-SW 244 0 min 0,000 mm 3,0 UV-I 384 W/m 16,9 C 25,2 C 12,9 km/h (3 Bft) 97,37 %
03.09.2016 14:26 25,3 C 57 % 1017,3 hPa 0,0 l/m 6,2 km/h (2 Bft) W 277 2 min 0,000 mm 3,2 UV-I 469 W/m 16,2 C 25,3 C 11,3 km/h (2 Bft) 100,00 %
03.09.2016 14:28 25,3 C 59 % 1017,3 hPa 0,0 l/m 4,9 km/h (1 Bft) W 269 2 min 0,000 mm 3,6 UV-I 492 W/m 16,7 C 25,3 C 9,7 km/h (2 Bft) 95,74 %
03.09.2016 14:30 25,4 C 58 % 1017,3 hPa 0,0 l/m 4,8 km/h (1 Bft) W-NW 295 2 min 0,000 mm 4,3 UV-I 881 W/m 16,5 C 25,4 C 9,7 km/h (2 Bft) 100,00 %
03.09.2016 14:32 25,6 C 58 % 1017,2 hPa 0,0 l/m 1,6 km/h (1 Bft) W 277 2 min 0,000 mm 4,1 UV-I 768 W/m 16,7 C 25,6 C 3,2 km/h (1 Bft) 100,00 %
03.09.2016 14:34 25,8 C 57 % 1017,2 hPa 0,0 l/m 1,7 km/h (1 Bft) NW 313 2 min 0,000 mm 3,2 UV-I 733 W/m 16,6 C 25,8 C 4,8 km/h (1 Bft) 97,87 %
03.09.2016 14:36 25,8 C 58 % 1017,2 hPa 0,0 l/m 4,1 km/h (1 Bft) S-SW 211 0 min 0,000 mm 2,7 UV-I 352 W/m 16,9 C 25,8 C 9,7 km/h (2 Bft) 100,00 %
03.09.2016 14:38 25,8 C 59 % 1017,2 hPa 0,0 l/m 4,4 km/h (1 Bft) SW 224 0 min 0,000 mm 2,6 UV-I 362 W/m 17,2 C 25,8 C 8,0 km/h (2 Bft) 95,74 %
03.09.2016 14:40 25,7 C 57 % 1017,1 hPa 0,0 l/m 2,7 km/h (1 Bft) S 188 0 min 0,000 mm 2,4 UV-I 331 W/m 16,5 C 25,7 C 4,8 km/h (1 Bft) 98,00 %
03.09.2016 14:42 25,7 C 58 % 1017,1 hPa 0,0 l/m 5,6 km/h (1 Bft) SW 232 0 min 0,000 mm 2,3 UV-I 318 W/m 16,8 C 25,7 C 11,3 km/h (2 Bft) 95,74 %
03.09.2016 14:44 25,6 C 57 % 1017,1 hPa 0,0 l/m 5,1 km/h (1 Bft) W 263 0 min 0,000 mm 2,3 UV-I 320 W/m 16,4 C 25,6 C 12,9 km/h (3 Bft) 93,62 %
03.09.2016 14:46 25,6 C 57 % 1017,1 hPa 0,0 l/m 4,9 km/h (1 Bft) W 261 0 min 0,000 mm 2,3 UV-I 332 W/m 16,4 C 25,6 C 8,0 km/h (2 Bft) 97,87 %
03.09.2016 14:48 25,5 C 57 % 1017,1 hPa 0,0 l/m 3,0 km/h (1 Bft) SW 223 0 min 0,000 mm 2,2 UV-I 336 W/m 16,3 C 25,5 C 4,8 km/h (1 Bft) 97,87 %
03.09.2016 14:50 25,4 C 58 % 1017,0 hPa 0,0 l/m 2,8 km/h (1 Bft) W 271 0 min 0,000 mm 2,2 UV-I 335 W/m 16,5 C 25,4 C 4,8 km/h (1 Bft) 97,22 %
03.09.2016 14:52 25,4 C 58 % 1017,0 hPa 0,0 l/m 2,2 km/h (1 Bft) W-NW 286 0 min 0,000 mm 2,0 UV-I 304 W/m 16,5 C 25,4 C 4,8 km/h (1 Bft) 96,00 %
03.09.2016 14:54 25,4 C 60 % 1017,0 hPa 0,0 l/m 1,6 km/h (1 Bft) W-NW 285 0 min 0,000 mm 1,9 UV-I 280 W/m 17,1 C 25,4 C 4,8 km/h (1 Bft) 97,87 %
03.09.2016 14:56 25,4 C 60 % 1017,0 hPa 0,0 l/m 4,1 km/h (1 Bft) W-SW 246 0 min 0,000 mm 1,7 UV-I 259 W/m 17,1 C 25,4 C 6,4 km/h (2 Bft) 97,87 %
03.09.2016 14:58 25,4 C 60 % 1017,0 hPa 0,0 l/m 3,0 km/h (1 Bft) S-SW 207 0 min 0,000 mm 1,6 UV-I 246 W/m 17,1 C 25,4 C 6,4 km/h (2 Bft) 98,00 %
03.09.2016 15:00 25,6 C 60 % 1017,0 hPa 0,0 l/m 4,8 km/h (1 Bft) W-NW 291 0 min 0,000 mm 1,6 UV-I 248 W/m 17,2 C 25,6 C 8,0 km/h (2 Bft) 97,87 %
03.09.2016 15:02 25,6 C 61 % 1017,0 hPa 0,0 l/m 3,9 km/h (1 Bft) W 278 0 min 0,304 mm 1,8 UV-I 270 W/m 17,5 C 25,6 C 6,4 km/h (2 Bft) 95,74 %
03.09.2016 15:04 25,5 C 59 % 1017,0 hPa 0,0 l/m 3,9 km/h (1 Bft) SW 223 0 min 0,000 mm 2,0 UV-I 316 W/m 16,9 C 25,5 C 6,4 km/h (2 Bft) 97,87 %
03.09.2016 15:06 25,5 C 60 % 1017,0 hPa 0,0 l/m 4,4 km/h (1 Bft) W-SW 239 0 min 0,000 mm 2,1 UV-I 336 W/m 17,2 C 25,5 C 8,0 km/h (2 Bft) 97,87 %
03.09.2016 15:08 25,6 C 58 % 1017,0 hPa 0,0 l/m 2,8 km/h (1 Bft) W 261 2 min 0,000 mm 2,2 UV-I 364 W/m 16,7 C 25,6 C 6,4 km/h (2 Bft) 97,87 %
03.09.2016 15:10 25,6 C 60 % 1017,0 hPa 0,0 l/m 3,0 km/h (1 Bft) W-NW 284 0 min 0,000 mm 2,1 UV-I 307 W/m 17,2 C 25,6 C 6,4 km/h (2 Bft) 97,87 %
03.09.2016 15:12 25,7 C 61 % 1017,0 hPa 0,0 l/m 3,3 km/h (1 Bft) W-NW 296 0 min 0,000 mm 2,4 UV-I 346 W/m 17,6 C 25,7 C 6,4 km/h (2 Bft) 97,87 %
03.09.2016 15:14 25,8 C 60 % 1017,0 hPa 0,0 l/m 1,3 km/h (1 Bft) W-NW 302 2 min 0,000 mm 2,7 UV-I 440 W/m 17,4 C 25,8 C 4,8 km/h (1 Bft) 97,87 %
03.09.2016 15:16 25,8 C 58 % 1017,0 hPa 0,0 l/m 2,4 km/h (1 Bft) NW 311 2 min 0,000 mm 2,4 UV-I 742 W/m 16,9 C 25,8 C 4,8 km/h (1 Bft) 95,74 %
03.09.2016 15:18 25,8 C 57 % 1017,0 hPa 0,0 l/m 3,7 km/h (1 Bft) N 9 2 min 0,000 mm 2,3 UV-I 541 W/m 16,6 C 25,8 C 8,0 km/h (2 Bft) 97,87 %
03.09.2016 15:20 25,8 C 58 % 1017,0 hPa 0,0 l/m 3,3 km/h (1 Bft) W 259 0 min 0,000 mm 2,5 UV-I 348 W/m 16,9 C 25,8 C 6,4 km/h (2 Bft) 100,00 %
03.09.2016 15:22 25,8 C 56 % 1016,9 hPa 0,0 l/m 3,4 km/h (1 Bft) NW 319 0 min 0,000 mm 2,0 UV-I 271 W/m 16,3 C 25,8 C 9,7 km/h (2 Bft) 100,00 %
03.09.2016 15:24 25,7 C 58 % 1016,9 hPa 0,0 l/m 2,7 km/h (1 Bft) N-NW 336 0 min 0,000 mm 1,9 UV-I 225 W/m 16,8 C 25,7 C 6,4 km/h (2 Bft) 100,00 %
03.09.2016 15:26 25,7 C 61 % 1016,9 hPa 0,0 l/m 2,4 km/h (1 Bft) N 355 0 min 0,000 mm 1,8 UV-I 214 W/m 17,6 C 25,7 C 4,8 km/h (1 Bft) 100,00 %
03.09.2016 15:28 25,6 C 59 % 1016,9 hPa 0,0 l/m 3,6 km/h (1 Bft) N-NW 342 0 min 0,000 mm 1,8 UV-I 217 W/m 17,0 C 25,6 C 9,7 km/h (2 Bft) 100,00 %
03.09.2016 15:30 25,5 C 59 % 1017,0 hPa 0,0 l/m 4,2 km/h (1 Bft) W-SW 249 0 min 0,000 mm 1,8 UV-I 227 W/m 16,9 C 25,5 C 11,3 km/h (2 Bft) 100,00 %
03.09.2016 15:32 25,4 C 60 % 1017,0 hPa 0,0 l/m 4,4 km/h (1 Bft) W-NW 288 0 min 0,000 mm 2,0 UV-I 245 W/m 17,1 C 25,4 C 11,3 km/h (2 Bft) 100,00 %
03.09.2016 15:34 25,5 C 58 % 1016,9 hPa 0,0 l/m 3,1 km/h (1 Bft) NW 315 0 min 0,000 mm 2,3 UV-I 253 W/m 16,6 C 25,5 C 8,0 km/h (2 Bft) 100,00 %
03.09.2016 15:36 25,6 C 57 % 1016,9 hPa 0,0 l/m 7,6 km/h (2 Bft) NW 324 2 min 0,000 mm 2,5 UV-I 400 W/m 16,4 C 25,3 C 20,9 km/h (4 Bft) 100,00 %
03.09.2016 15:38 25,7 C 58 % 1016,9 hPa 0,0 l/m 4,9 km/h (1 Bft) N 350 2 min 0,000 mm 2,6 UV-I 542 W/m 16,8 C 25,7 C 8,0 km/h (2 Bft) 100,00 %
03.09.2016 15:40 25,9 C 58 % 1016,9 hPa 0,0 l/m 3,6 km/h (1 Bft) W-NW 302 2 min 0,000 mm 2,7 UV-I 586 W/m 17,0 C 25,9 C 6,4 km/h (2 Bft) 100,00 %
03.09.2016 15:42 25,9 C 56 % 1016,9 hPa 0,0 l/m 5,3 km/h (1 Bft) NW 322 2 min 0,000 mm 2,8 UV-I 613 W/m 16,4 C 25,9 C 9,7 km/h (2 Bft) 100,00 %
03.09.2016 15:44 26,0 C 59 % 1016,8 hPa 0,0 l/m 6,1 km/h (2 Bft) W-SW 244 2 min 0,000 mm 2,8 UV-I 607 W/m 17,4 C 26,0 C 12,9 km/h (3 Bft) 100,00 %
03.09.2016 15:46 26,2 C 57 % 1016,8 hPa 0,0 l/m 5,8 km/h (2 Bft) W-NW 286 2 min 0,000 mm 2,7 UV-I 580 W/m 17,0 C 26,2 C 11,3 km/h (2 Bft) 100,00 %
03.09.2016 15:48 26,2 C 57 % 1016,8 hPa 0,0 l/m 5,3 km/h (1 Bft) SW 236 2 min 0,000 mm 2,7 UV-I 560 W/m 17,0 C 26,2 C 12,9 km/h (3 Bft) 100,00 %
03.09.2016 15:50 26,2 C 58 % 1016,7 hPa 0,0 l/m 2,7 km/h (1 Bft) N-NW 329 2 min 0,000 mm 2,6 UV-I 545 W/m 17,3 C 26,2 C 4,8 km/h (1 Bft) 100,00 %
03.09.2016 15:52 26,2 C 57 % 1016,7 hPa 0,0 l/m 3,5 km/h (1 Bft) N-NW 337 2 min 0,000 mm 2,5 UV-I 526 W/m 17,0 C 26,2 C 8,0 km/h (2 Bft) 97,87 %
03.09.2016 15:54 26,3 C 57 % 1016,7 hPa 0,0 l/m 1,9 km/h (1 Bft) N-NW 329 2 min 0,000 mm 2,6 UV-I 576 W/m 17,1 C 26,3 C 6,4 km/h (2 Bft) 95,74 %
03.09.2016 15:56 26,3 C 56 % 1016,7 hPa 0,0 l/m 2,3 km/h (1 Bft) NW 323 2 min 0,000 mm 2,5 UV-I 529 W/m 16,8 C 26,3 C 4,8 km/h (1 Bft) 97,87 %
03.09.2016 15:58 26,3 C 55 % 1016,7 hPa 0,0 l/m 2,2 km/h (1 Bft) W-NW 283 2 min 0,000 mm 2,4 UV-I 509 W/m 16,5 C 26,3 C 4,8 km/h (1 Bft) 97,87 %
03.09.2016 16:00 26,2 C 56 % 1016,7 hPa 0,0 l/m 2,7 km/h (1 Bft) N-NW 328 2 min 0,305 mm 2,3 UV-I 456 W/m 16,7 C 26,2 C 6,4 km/h (2 Bft) 98,00 %
03.09.2016 16:02 26,2 C 57 % 1016,6 hPa 0,0 l/m 2,7 km/h (1 Bft) NW 310 2 min 0,000 mm 2,2 UV-I 435 W/m 17,0 C 26,2 C 6,4 km/h (2 Bft) 100,00 %
03.09.2016 16:04 26,2 C 57 % 1016,6 hPa 0,0 l/m 5,4 km/h (1 Bft) W-NW 284 2 min 0,000 mm 2,2 UV-I 467 W/m 17,0 C 26,2 C 12,9 km/h (3 Bft) 100,00 %
03.09.2016 16:06 26,2 C 56 % 1016,5 hPa 0,0 l/m 4,1 km/h (1 Bft) N-NO 24 2 min 0,000 mm 2,1 UV-I 454 W/m 16,7 C 26,2 C 8,0 km/h (2 Bft) 100,00 %
03.09.2016 16:08 26,1 C 56 % 1016,5 hPa 0,0 l/m 4,9 km/h (1 Bft) N-NO 17 2 min 0,000 mm 2,2 UV-I 546 W/m 16,6 C 26,1 C 11,3 km/h (2 Bft) 100,00 %
03.09.2016 16:10 26,1 C 56 % 1016,5 hPa 0,0 l/m 3,6 km/h (1 Bft) SW 229 2 min 0,000 mm 2,0 UV-I 489 W/m 16,6 C 26,1 C 9,7 km/h (2 Bft) 100,00 %
03.09.2016 16:12 26,1 C 58 % 1016,6 hPa 0,0 l/m 3,8 km/h (1 Bft) W 259 2 min 0,000 mm 2,1 UV-I 461 W/m 17,2 C 26,1 C 6,4 km/h (2 Bft) 100,00 %
03.09.2016 16:14 26,1 C 58 % 1016,5 hPa 0,0 l/m 3,9 km/h (1 Bft) NW 321 2 min 0,000 mm 2,1 UV-I 534 W/m 17,2 C 26,1 C 11,3 km/h (2 Bft) 100,00 %
03.09.2016 16:16 26,2 C 58 % 1016,5 hPa 0,0 l/m 3,4 km/h (1 Bft) W-SW 238 2 min 0,000 mm 2,1 UV-I 495 W/m 17,3 C 26,2 C 6,4 km/h (2 Bft) 100,00 %
03.09.2016 16:18 26,2 C 58 % 1016,5 hPa 0,0 l/m 4,2 km/h (1 Bft) S-SW 192 2 min 0,000 mm 2,1 UV-I 505 W/m 17,3 C 26,2 C 8,0 km/h (2 Bft) 100,00 %
03.09.2016 16:20 26,3 C 55 % 1016,4 hPa 0,0 l/m 2,0 km/h (1 Bft) SW 229 2 min 0,000 mm 2,0 UV-I 475 W/m 16,5 C 26,3 C 4,8 km/h (1 Bft) 100,00 %
03.09.2016 16:22 26,3 C 55 % 1016,5 hPa 0,0 l/m 2,8 km/h (1 Bft) W-NW 287 2 min 0,000 mm 1,9 UV-I 463 W/m 16,5 C 26,3 C 4,8 km/h (1 Bft) 100,00 %
03.09.2016 16:24 26,3 C 57 % 1016,4 hPa 0,0 l/m 2,2 km/h (1 Bft) SW 219 2 min 0,000 mm 1,9 UV-I 468 W/m 17,1 C 26,3 C 4,8 km/h (1 Bft) 97,87 %
03.09.2016 16:26 26,4 C 56 % 1016,4 hPa 0,0 l/m 4,3 km/h (1 Bft) S 191 2 min 0,000 mm 1,9 UV-I 485 W/m 16,9 C 26,4 C 6,4 km/h (2 Bft) 100,00 %
03.09.2016 16:28 26,6 C 56 % 1016,4 hPa 0,0 l/m 2,8 km/h (1 Bft) W-NW 282 2 min 0,000 mm 1,8 UV-I 482 W/m 17,1 C 26,6 C 9,7 km/h (2 Bft) 97,87 %
03.09.2016 16:30 26,4 C 54 % 1016,4 hPa 0,0 l/m 4,4 km/h (1 Bft) W 264 2 min 0,000 mm 1,7 UV-I 452 W/m 16,3 C 26,4 C 9,7 km/h (2 Bft) 95,74 %
03.09.2016 16:32 26,4 C 54 % 1016,4 hPa 0,0 l/m 4,2 km/h (1 Bft) NW 309 2 min 0,000 mm 1,7 UV-I 464 W/m 16,3 C 26,4 C 8,0 km/h (2 Bft) 95,74 %
03.09.2016 16:34 26,3 C 55 % 1016,4 hPa 0,0 l/m 4,4 km/h (1 Bft) NW 313 2 min 0,000 mm 1,6 UV-I 384 W/m 16,5 C 26,3 C 8,0 km/h (2 Bft) 96,00 %
03.09.2016 16:36 26,3 C 55 % 1016,3 hPa 0,0 l/m 2,2 km/h (1 Bft) W 271 2 min 0,000 mm 1,5 UV-I 296 W/m 16,5 C 26,3 C 4,8 km/h (1 Bft) 97,87 %
03.09.2016 16:38 26,2 C 55 % 1016,3 hPa 0,0 l/m 4,8 km/h (1 Bft) SW 229 0 min 0,000 mm 1,5 UV-I 244 W/m 16,4 C 26,2 C 9,7 km/h (2 Bft) 95,74 %
03.09.2016 16:40 26,3 C 54 % 1016,3 hPa 0,0 l/m 6,8 km/h (2 Bft) SW 225 2 min 0,000 mm 1,6 UV-I 455 W/m 16,2 C 26,2 C 12,9 km/h (3 Bft) 97,22 %
03.09.2016 16:42 26,3 C 56 % 1016,3 hPa 0,0 l/m 2,6 km/h (1 Bft) W-SW 247 2 min 0,000 mm 1,4 UV-I 427 W/m 16,8 C 26,3 C 6,4 km/h (2 Bft) 98,00 %
03.09.2016 16:44 26,3 C 55 % 1016,3 hPa 0,0 l/m 1,9 km/h (1 Bft) NW 317 0 min 0,000 mm 1,3 UV-I 238 W/m 16,5 C 26,3 C 4,8 km/h (1 Bft) 97,87 %
03.09.2016 16:46 26,3 C 56 % 1016,3 hPa 0,0 l/m 5,2 km/h (1 Bft) W-NW 288 0 min 0,000 mm 1,3 UV-I 195 W/m 16,8 C 26,3 C 11,3 km/h (2 Bft) 95,74 %
03.09.2016 16:48 26,3 C 56 % 1016,3 hPa 0,0 l/m 5,1 km/h (1 Bft) W-SW 251 0 min 0,000 mm 1,2 UV-I 206 W/m 16,8 C 26,3 C 9,7 km/h (2 Bft) 96,00 %
03.09.2016 16:50 26,3 C 54 % 1016,3 hPa 0,0 l/m 2,1 km/h (1 Bft) NW 306 0 min 0,000 mm 1,1 UV-I 212 W/m 16,2 C 26,3 C 4,8 km/h (1 Bft) 98,00 %
03.09.2016 16:52 26,2 C 54 % 1016,3 hPa 0,0 l/m 3,8 km/h (1 Bft) W-SW 256 0 min 0,000 mm 1,1 UV-I 235 W/m 16,1 C 26,2 C 11,3 km/h (2 Bft) 97,87 %
03.09.2016 16:54 26,0 C 54 % 1016,3 hPa 0,0 l/m 5,2 km/h (1 Bft) SW 234 0 min 0,000 mm 1,0 UV-I 226 W/m 16,0 C 26,0 C 9,7 km/h (2 Bft) 100,00 %
03.09.2016 16:56 26,0 C 55 % 1016,3 hPa 0,0 l/m 5,6 km/h (1 Bft) W 259 2 min 0,000 mm 1,1 UV-I 357 W/m 16,2 C 26,0 C 11,3 km/h (2 Bft) 95,74 %
03.09.2016 16:58 26,1 C 55 % 1016,3 hPa 0,0 l/m 3,7 km/h (1 Bft) NW 311 2 min 0,000 mm 1,1 UV-I 376 W/m 16,3 C 26,1 C 9,7 km/h (2 Bft) 96,00 %
03.09.2016 17:00 26,1 C 55 % 1016,2 hPa 0,0 l/m 3,3 km/h (1 Bft) S 189 2 min 0,280 mm 1,1 UV-I 357 W/m 16,3 C 26,1 C 9,7 km/h (2 Bft) 97,87 %
03.09.2016 17:02 26,2 C 54 % 1016,2 hPa 0,0 l/m 4,6 km/h (1 Bft) SW 229 2 min 0,000 mm 1,1 UV-I 376 W/m 16,1 C 26,2 C 9,7 km/h (2 Bft) 95,74 %
03.09.2016 17:04 26,2 C 54 % 1016,2 hPa 0,0 l/m 3,3 km/h (1 Bft) W 259 2 min 0,000 mm 1,1 UV-I 371 W/m 16,1 C 26,2 C 11,3 km/h (2 Bft) 100,00 %
03.09.2016 17:06 26,3 C 52 % 1016,2 hPa 0,0 l/m 5,8 km/h (2 Bft) W-SW 256 2 min 0,000 mm 1,1 UV-I 391 W/m 15,6 C 26,3 C 9,7 km/h (2 Bft) 100,00 %
03.09.2016 17:08 26,3 C 52 % 1016,2 hPa 0,0 l/m 6,7 km/h (2 Bft) W 265 2 min 0,000 mm 1,1 UV-I 371 W/m 15,6 C 26,2 C 11,3 km/h (2 Bft) 94,29 %
03.09.2016 17:10 26,3 C 53 % 1016,1 hPa 0,0 l/m 3,1 km/h (1 Bft) W 278 2 min 0,000 mm 1,1 UV-I 329 W/m 15,9 C 26,3 C 6,4 km/h (2 Bft) 97,87 %
03.09.2016 17:12 26,4 C 54 % 1016,1 hPa 0,0 l/m 4,5 km/h (1 Bft) S-SO 165 2 min 0,000 mm 1,0 UV-I 364 W/m 16,3 C 26,4 C 6,4 km/h (2 Bft) 97,87 %
03.09.2016 17:14 26,4 C 53 % 1016,1 hPa 0,0 l/m 6,3 km/h (2 Bft) W-SW 252 2 min 0,000 mm 1,0 UV-I 362 W/m 16,0 C 26,4 C 9,7 km/h (2 Bft) 100,00 %
03.09.2016 17:16 26,4 C 53 % 1016,1 hPa 0,0 l/m 2,6 km/h (1 Bft) W 272 2 min 0,000 mm 1,0 UV-I 361 W/m 16,0 C 26,4 C 4,8 km/h (1 Bft) 100,00 %
03.09.2016 17:18 26,4 C 53 % 1016,1 hPa 0,0 l/m 2,0 km/h (1 Bft) W 263 2 min 0,000 mm 0,9 UV-I 220 W/m 16,0 C 26,4 C 6,4 km/h (2 Bft) 100,00 %
03.09.2016 17:20 26,3 C 52 % 1016,1 hPa 0,0 l/m 6,3 km/h (2 Bft) W-NW 287 2 min 0,000 mm 0,9 UV-I 304 W/m 15,6 C 26,3 C 11,3 km/h (2 Bft) 97,87 %
03.09.2016 17:22 26,2 C 52 % 1016,1 hPa 0,0 l/m 2,5 km/h (1 Bft) W-SW 257 0 min 0,000 mm 0,8 UV-I 204 W/m 15,6 C 26,2 C 4,8 km/h (1 Bft) 100,00 %
03.09.2016 17:24 26,1 C 53 % 1016,2 hPa 0,0 l/m 4,1 km/h (1 Bft) W-SW 250 0 min 0,000 mm 0,7 UV-I 123 W/m 15,8 C 26,1 C 6,4 km/h (2 Bft) 100,00 %
03.09.2016 17:26 25,9 C 52 % 1016,1 hPa 0,0 l/m 4,2 km/h (1 Bft) SW 229 0 min 0,000 mm 0,7 UV-I 127 W/m 15,3 C 25,9 C 6,4 km/h (2 Bft) 100,00 %
03.09.2016 17:28 25,8 C 54 % 1016,2 hPa 0,0 l/m 3,7 km/h (1 Bft) W-SW 258 0 min 0,000 mm 0,7 UV-I 150 W/m 15,8 C 25,8 C 8,0 km/h (2 Bft) 100,00 %
03.09.2016 17:30 25,8 C 53 % 1016,2 hPa 0,0 l/m 2,2 km/h (1 Bft) W 259 0 min 0,000 mm 0,7 UV-I 172 W/m 15,5 C 25,8 C 4,8 km/h (1 Bft) 100,00 %
03.09.2016 17:32 25,7 C 55 % 1016,2 hPa 0,0 l/m 2,8 km/h (1 Bft) W-SW 240 0 min 0,000 mm 0,7 UV-I 145 W/m 16,0 C 25,7 C 6,4 km/h (2 Bft) 100,00 %
03.09.2016 17:34 25,7 C 54 % 1016,1 hPa 0,0 l/m 3,3 km/h (1 Bft) W-SW 247 2 min 0,000 mm 0,7 UV-I 273 W/m 15,7 C 25,7 C 4,8 km/h (1 Bft) 100,00 %
03.09.2016 17:36 25,8 C 54 % 1016,2 hPa 0,0 l/m 2,6 km/h (1 Bft) W 264 2 min 0,000 mm 0,7 UV-I 288 W/m 15,8 C 25,8 C 8,0 km/h (2 Bft) 100,00 %
03.09.2016 17:38 25,8 C 55 % 1016,2 hPa 0,0 l/m 4,1 km/h (1 Bft) W-NW 282 2 min 0,000 mm 0,7 UV-I 265 W/m 16,1 C 25,8 C 12,9 km/h (3 Bft) 100,00 %
03.09.2016 17:40 25,9 C 55 % 1016,1 hPa 0,0 l/m 1,7 km/h (1 Bft) W-NW 290 2 min 0,000 mm 0,6 UV-I 235 W/m 16,2 C 25,9 C 4,8 km/h (1 Bft) 100,00 %
03.09.2016 17:42 25,9 C 53 % 1016,2 hPa 0,0 l/m 2,8 km/h (1 Bft) NW 311 2 min 0,000 mm 0,6 UV-I 240 W/m 15,6 C 25,9 C 6,4 km/h (2 Bft) 97,87 %
03.09.2016 17:44 25,8 C 53 % 1016,1 hPa 0,0 l/m 5,5 km/h (1 Bft) NW 320 2 min 0,000 mm 0,6 UV-I 237 W/m 15,5 C 25,8 C 12,9 km/h (3 Bft) 97,87 %
03.09.2016 17:46 25,8 C 53 % 1016,1 hPa 0,0 l/m 3,8 km/h (1 Bft) W-SW 253 2 min 0,000 mm 0,5 UV-I 220 W/m 15,5 C 25,8 C 6,4 km/h (2 Bft) 100,00 %
03.09.2016 17:48 25,7 C 53 % 1016,2 hPa 0,0 l/m 2,8 km/h (1 Bft) W-NW 296 2 min 0,000 mm 0,5 UV-I 174 W/m 15,4 C 25,7 C 8,0 km/h (2 Bft) 97,87 %
03.09.2016 17:50 25,7 C 54 % 1016,2 hPa 0,0 l/m 1,2 km/h (1 Bft) NW 319 2 min 0,000 mm 0,5 UV-I 164 W/m 15,7 C 25,7 C 4,8 km/h (1 Bft) 100,00 %
03.09.2016 17:52 25,6 C 53 % 1016,2 hPa 0,0 l/m 2,6 km/h (1 Bft) NW 312 0 min 0,000 mm 0,5 UV-I 154 W/m 15,3 C 25,6 C 6,4 km/h (2 Bft) 95,74 %
03.09.2016 17:54 25,6 C 54 % 1016,2 hPa 0,0 l/m 2,6 km/h (1 Bft) W-SW 251 2 min 0,000 mm 0,5 UV-I 169 W/m 15,6 C 25,6 C 4,8 km/h (1 Bft) 97,87 %
03.09.2016 17:56 25,5 C 55 % 1016,1 hPa 0,0 l/m 0,9 km/h (0 Bft) W 266 2 min 0,000 mm 0,5 UV-I 197 W/m 15,8 C 25,5 C 3,2 km/h (1 Bft) 100,00 %
03.09.2016 17:58 25,5 C 54 % 1016,1 hPa 0,0 l/m 1,5 km/h (1 Bft) W 281 2 min 0,000 mm 0,4 UV-I 216 W/m 15,5 C 25,5 C 3,2 km/h (1 Bft) 100,00 %
03.09.2016 18:00 25,5 C 54 % 1016,1 hPa 0,0 l/m 2,1 km/h (1 Bft) N-NO 21 0 min 0,000 mm 0,0 UV-I 139 W/m 15,5 C 25,5 C 6,4 km/h (2 Bft) 97,87 %
03.09.2016 18:02 25,4 C 55 % 1016,1 hPa 0,0 l/m 1,5 km/h (1 Bft) N-NW 333 0 min 0,177 mm 0,0 UV-I 128 W/m 15,7 C 25,4 C 3,2 km/h (1 Bft) 100,00 %
03.09.2016 18:04 25,4 C 56 % 1016,1 hPa 0,0 l/m 1,4 km/h (1 Bft) W-NW 290 2 min 0,000 mm 0,0 UV-I 200 W/m 16,0 C 25,4 C 3,2 km/h (1 Bft) 100,00 %
03.09.2016 18:06 25,4 C 55 % 1016,1 hPa 0,0 l/m 1,2 km/h (1 Bft) W-NW 290 2 min 0,000 mm 0,0 UV-I 229 W/m 15,7 C 25,4 C 3,2 km/h (1 Bft) 100,00 %
03.09.2016 18:08 25,4 C 55 % 1016,1 hPa 0,0 l/m 3,0 km/h (1 Bft) W-NW 303 2 min 0,000 mm 0,0 UV-I 216 W/m 15,7 C 25,4 C 6,4 km/h (2 Bft) 100,00 %
03.09.2016 18:10 25,6 C 55 % 1016,1 hPa 0,0 l/m 3,2 km/h (1 Bft) W-NW 284 2 min 0,000 mm 0,0 UV-I 210 W/m 15,9 C 25,6 C 6,4 km/h (2 Bft) 95,92 %
03.09.2016 18:12 25,6 C 57 % 1016,1 hPa 0,0 l/m 1,5 km/h (1 Bft) W 277 2 min 0,000 mm 0,0 UV-I 184 W/m 16,4 C 25,6 C 4,8 km/h (1 Bft) 100,00 %
03.09.2016 18:14 25,6 C 55 % 1016,1 hPa 0,0 l/m 2,2 km/h (1 Bft) W-SW 251 0 min 0,000 mm 0,0 UV-I 124 W/m 15,9 C 25,6 C 4,8 km/h (1 Bft) 100,00 %
03.09.2016 18:16 25,5 C 55 % 1016,1 hPa 0,0 l/m 2,5 km/h (1 Bft) NW 313 0 min 0,000 mm 0,0 UV-I 123 W/m 15,8 C 25,5 C 4,8 km/h (1 Bft) 100,00 %
03.09.2016 18:18 25,4 C 55 % 1016,1 hPa 0,0 l/m 4,4 km/h (1 Bft) W-SW 257 2 min 0,000 mm 0,0 UV-I 130 W/m 15,7 C 25,4 C 11,3 km/h (2 Bft) 100,00 %
03.09.2016 18:20 25,3 C 56 % 1016,1 hPa 0,0 l/m 1,7 km/h (1 Bft) W-SW 250 0 min 0,000 mm 0,0 UV-I 115 W/m 15,9 C 25,3 C 4,8 km/h (1 Bft) 100,00 %
03.09.2016 18:22 25,3 C 56 % 1016,2 hPa 0,0 l/m 2,4 km/h (1 Bft) W-SW 251 0 min 0,000 mm 0,0 UV-I 88 W/m 15,9 C 25,3 C 4,8 km/h (1 Bft) 100,00 %
03.09.2016 18:24 25,2 C 55 % 1016,1 hPa 0,0 l/m 0,9 km/h (0 Bft) W-SW 251 0 min 0,000 mm 0,0 UV-I 78 W/m 15,5 C 25,2 C 3,2 km/h (1 Bft) 97,92 %
03.09.2016 18:26 25,1 C 56 % 1016,1 hPa 0,0 l/m 2,5 km/h (1 Bft) W 261 0 min 0,000 mm 0,0 UV-I 78 W/m 15,7 C 25,1 C 4,8 km/h (1 Bft) 97,87 %
03.09.2016 18:28 24,9 C 56 % 1016,1 hPa 0,0 l/m 1,5 km/h (1 Bft) W 261 0 min 0,000 mm 0,0 UV-I 97 W/m 15,5 C 24,9 C 3,2 km/h (1 Bft) 97,87 %
03.09.2016 18:30 24,8 C 56 % 1016,1 hPa 0,0 l/m 2,0 km/h (1 Bft) W 261 0 min 0,000 mm 0,0 UV-I 102 W/m 15,4 C 24,8 C 3,2 km/h (1 Bft) 96,00 %
03.09.2016 18:32 24,8 C 57 % 1016,1 hPa 0,0 l/m 1,4 km/h (1 Bft) W 261 2 min 0,000 mm 0,0 UV-I 113 W/m 15,7 C 24,8 C 3,2 km/h (1 Bft) 95,74 %
03.09.2016 18:34 24,8 C 57 % 1016,1 hPa 0,0 l/m 2,0 km/h (1 Bft) W 264 2 min 0,000 mm 0,0 UV-I 110 W/m 15,7 C 24,8 C 4,8 km/h (1 Bft) 97,87 %
03.09.2016 18:36 24,7 C 56 % 1016,1 hPa 0,0 l/m 3,0 km/h (1 Bft) W 273 2 min 0,000 mm 0,0 UV-I 114 W/m 15,3 C 24,7 C 4,8 km/h (1 Bft) 97,87 %
03.09.2016 18:38 24,8 C 57 % 1016,1 hPa 0,0 l/m 5,0 km/h (1 Bft) W 272 2 min 0,000 mm 0,0 UV-I 111 W/m 15,7 C 24,8 C 9,7 km/h (2 Bft) 97,87 %
03.09.2016 18:40 24,7 C 57 % 1016,1 hPa 0,0 l/m 3,5 km/h (1 Bft) W-SW 254 2 min 0,000 mm 0,0 UV-I 112 W/m 15,6 C 24,7 C 6,4 km/h (2 Bft) 97,87 %
03.09.2016 18:42 24,7 C 58 % 1016,1 hPa 0,0 l/m 1,7 km/h (1 Bft) W-SW 257 2 min 0,000 mm 0,0 UV-I 127 W/m 15,9 C 24,7 C 4,8 km/h (1 Bft) 97,92 %
03.09.2016 18:44 24,7 C 57 % 1016,1 hPa 0,0 l/m 4,1 km/h (1 Bft) W-SW 238 2 min 0,000 mm 0,0 UV-I 132 W/m 15,6 C 24,7 C 6,4 km/h (2 Bft) 98,00 %
03.09.2016 18:46 24,7 C 56 % 1016,1 hPa 0,0 l/m 3,3 km/h (1 Bft) W 271 2 min 0,000 mm 0,0 UV-I 128 W/m 15,3 C 24,7 C 6,4 km/h (2 Bft) 97,37 %
03.09.2016 18:48 24,7 C 54 % 1016,1 hPa 0,0 l/m 4,0 km/h (1 Bft) W-SW 258 2 min 0,000 mm 0,0 UV-I 114 W/m 14,8 C 24,7 C 6,4 km/h (2 Bft) 97,96 %
03.09.2016 18:50 24,7 C 54 % 1016,1 hPa 0,0 l/m 3,7 km/h (1 Bft) W 263 2 min 0,000 mm 0,0 UV-I 99 W/m 14,8 C 24,7 C 4,8 km/h (1 Bft) 95,74 %
03.09.2016 18:52 24,7 C 55 % 1016,1 hPa 0,0 l/m 4,6 km/h (1 Bft) W 263 2 min 0,000 mm 0,0 UV-I 94 W/m 15,0 C 24,7 C 11,3 km/h (2 Bft) 97,87 %
03.09.2016 18:54 24,6 C 55 % 1016,1 hPa 0,0 l/m 4,1 km/h (1 Bft) W-SW 257 2 min 0,000 mm 0,0 UV-I 88 W/m 14,9 C 24,6 C 9,7 km/h (2 Bft) 95,74 %
03.09.2016 18:56 24,6 C 56 % 1016,1 hPa 0,0 l/m 3,7 km/h (1 Bft) W 273 2 min 0,000 mm 0,0 UV-I 76 W/m 15,2 C 24,6 C 6,4 km/h (2 Bft) 95,74 %
03.09.2016 18:58 24,5 C 55 % 1016,1 hPa 0,0 l/m 2,7 km/h (1 Bft) W 266 2 min 0,000 mm 0,0 UV-I 65 W/m 14,9 C 24,5 C 4,8 km/h (1 Bft) 95,74 %
03.09.2016 19:00 24,4 C 55 % 1016,1 hPa 0,0 l/m 2,1 km/h (1 Bft) W 277 2 min 0,000 mm 0,0 UV-I 57 W/m 14,8 C 24,4 C 4,8 km/h (1 Bft) 100,00 %
03.09.2016 19:02 24,3 C 55 % 1016,1 hPa 0,0 l/m 2,7 km/h (1 Bft) W-NW 291 0 min 0,102 mm 0,0 UV-I 51 W/m 14,7 C 24,3 C 4,8 km/h (1 Bft) 100,00 %
03.09.2016 19:04 24,2 C 56 % 1016,1 hPa 0,0 l/m 3,6 km/h (1 Bft) W 280 0 min 0,000 mm 0,0 UV-I 47 W/m 14,9 C 24,2 C 6,4 km/h (2 Bft) 97,87 %
03.09.2016 19:06 24,1 C 56 % 1016,1 hPa 0,0 l/m 2,8 km/h (1 Bft) W-SW 257 0 min 0,000 mm 0,0 UV-I 45 W/m 14,8 C 24,1 C 6,4 km/h (2 Bft) 97,56 %
03.09.2016 19:08 24,1 C 56 % 1016,2 hPa 0,0 l/m 3,2 km/h (1 Bft) W 277 0 min 0,000 mm 0,0 UV-I 41 W/m 14,8 C 24,1 C 4,8 km/h (1 Bft) 100,00 %
03.09.2016 19:10 24,0 C 56 % 1016,2 hPa 0,0 l/m 4,0 km/h (1 Bft) W 267 0 min 0,000 mm 0,0 UV-I 37 W/m 14,7 C 24,0 C 9,7 km/h (2 Bft) 100,00 %
03.09.2016 19:12 23,9 C 57 % 1016,2 hPa 0,0 l/m 3,2 km/h (1 Bft) W 271 0 min 0,000 mm 0,0 UV-I 33 W/m 14,9 C 23,9 C 4,8 km/h (1 Bft) 100,00 %
03.09.2016 19:14 23,8 C 57 % 1016,1 hPa 0,0 l/m 2,2 km/h (1 Bft) W 271 0 min 0,000 mm 0,0 UV-I 28 W/m 14,8 C 23,8 C 3,2 km/h (1 Bft) 100,00 %
03.09.2016 19:16 23,8 C 57 % 1016,1 hPa 0,0 l/m 2,8 km/h (1 Bft) W 271 0 min 0,000 mm 0,0 UV-I 25 W/m 14,8 C 23,8 C 4,8 km/h (1 Bft) 100,00 %
03.09.2016 19:18 23,8 C 58 % 1016,1 hPa 0,0 l/m 1,6 km/h (1 Bft) W 271 0 min 0,000 mm 0,0 UV-I 21 W/m 15,0 C 23,8 C 3,2 km/h (1 Bft) 98,00 %
03.09.2016 19:20 23,7 C 58 % 1016,1 hPa 0,0 l/m 1,9 km/h (1 Bft) W 271 0 min 0,000 mm 0,0 UV-I 19 W/m 14,9 C 23,7 C 3,2 km/h (1 Bft) 100,00 %
03.09.2016 19:22 23,6 C 58 % 1016,2 hPa 0,0 l/m 2,5 km/h (1 Bft) W 271 0 min 0,000 mm 0,0 UV-I 16 W/m 14,8 C 23,6 C 3,2 km/h (1 Bft) 100,00 %
03.09.2016 19:24 23,5 C 58 % 1016,1 hPa 0,0 l/m 2,0 km/h (1 Bft) W 271 0 min 0,000 mm 0,0 UV-I 14 W/m 14,7 C 23,5 C 3,2 km/h (1 Bft) 100,00 %
03.09.2016 19:26 23,4 C 59 % 1016,2 hPa 0,0 l/m 2,3 km/h (1 Bft) W 271 0 min 0,000 mm 0,0 UV-I 13 W/m 14,9 C 23,4 C 3,2 km/h (1 Bft) 100,00 %
03.09.2016 19:28 23,3 C 60 % 1016,1 hPa 0,0 l/m 1,7 km/h (1 Bft) W 271 2 min 0,000 mm 0,0 UV-I 12 W/m 15,1 C 23,3 C 3,2 km/h (1 Bft) 100,00 %
03.09.2016 19:30 23,2 C 60 % 1016,2 hPa 0,0 l/m 1,2 km/h (1 Bft) W 271 2 min 0,000 mm 0,0 UV-I 11 W/m 15,0 C 23,2 C 1,6 km/h (1 Bft) 100,00 %
03.09.2016 19:32 23,2 C 61 % 1016,1 hPa 0,0 l/m 1,8 km/h (1 Bft) W 271 0 min 0,000 mm 0,0 UV-I 9 W/m 15,3 C 23,2 C 3,2 km/h (1 Bft) 100,00 %
03.09.2016 19:34 23,0 C 62 % 1016,2 hPa 0,0 l/m 1,1 km/h (1 Bft) W 271 0 min 0,000 mm 0,0 UV-I 7 W/m 15,3 C 23,0 C 3,2 km/h (1 Bft) 100,00 %
03.09.2016 19:36 22,8 C 64 % 1016,2 hPa 0,0 l/m 1,3 km/h (1 Bft) W 271 0 min 0,000 mm 0,0 UV-I 5 W/m 15,6 C 22,8 C 3,2 km/h (1 Bft) 97,87 %
03.09.2016 19:38 22,6 C 65 % 1016,2 hPa 0,0 l/m 0,0 km/h (0 Bft) W 271 0 min 0,000 mm 0,0 UV-I 4 W/m 15,7 C 22,6 C 0,0 km/h (0 Bft) 100,00 %
03.09.2016 19:40 22,3 C 65 % 1016,2 hPa 0,0 l/m 0,5 km/h (0 Bft) W 271 0 min 0,000 mm 0,0 UV-I 0 W/m 15,4 C 22,3 C 3,2 km/h (1 Bft) 100,00 %
03.09.2016 19:42 22,1 C 66 % 1016,2 hPa 0,0 l/m 0,1 km/h (0 Bft) W 271 0 min 0,000 mm 0,0 UV-I 0 W/m 15,4 C 22,1 C 1,6 km/h (1 Bft) 100,00 %
03.09.2016 19:44 21,8 C 69 % 1016,2 hPa 0,0 l/m 0,6 km/h (0 Bft) W 271 0 min 0,000 mm 0,0 UV-I 0 W/m 15,9 C 21,8 C 1,6 km/h (1 Bft) 97,87 %
03.09.2016 19:46 21,4 C 70 % 1016,2 hPa 0,0 l/m 1,2 km/h (1 Bft) W-SW 254 0 min 0,000 mm 0,0 UV-I 0 W/m 15,7 C 21,4 C 1,6 km/h (1 Bft) 97,87 %
03.09.2016 19:48 21,2 C 72 % 1016,2 hPa 0,0 l/m 3,3 km/h (1 Bft) SW 218 0 min 0,000 mm 0,0 UV-I 0 W/m 15,9 C 21,2 C 4,8 km/h (1 Bft) 100,00 %
03.09.2016 19:50 20,8 C 73 % 1016,3 hPa 0,0 l/m 3,8 km/h (1 Bft) S-SW 203 0 min 0,000 mm 0,0 UV-I 0 W/m 15,8 C 20,8 C 4,8 km/h (1 Bft) 100,00 %
03.09.2016 19:52 20,6 C 74 % 1016,2 hPa 0,0 l/m 4,0 km/h (1 Bft) S-SW 203 0 min 0,000 mm 0,0 UV-I 0 W/m 15,8 C 20,6 C 4,8 km/h (1 Bft) 100,00 %
03.09.2016 19:54 20,4 C 74 % 1016,3 hPa 0,0 l/m 4,1 km/h (1 Bft) S-SW 200 0 min 0,000 mm 0,0 UV-I 0 W/m 15,6 C 20,4 C 4,8 km/h (1 Bft) 97,87 %
03.09.2016 19:56 20,3 C 75 % 1016,3 hPa 0,0 l/m 4,4 km/h (1 Bft) S-SW 200 0 min 0,000 mm 0,0 UV-I 0 W/m 15,7 C 20,3 C 4,8 km/h (1 Bft) 97,87 %
03.09.2016 19:58 20,2 C 75 % 1016,3 hPa 0,0 l/m 3,9 km/h (1 Bft) S-SW 196 0 min 0,000 mm 0,0 UV-I 0 W/m 15,6 C 20,2 C 4,8 km/h (1 Bft) 97,87 %
03.09.2016 20:00 20,2 C 75 % 1016,3 hPa 0,0 l/m 3,3 km/h (1 Bft) S 178 0 min 0,000 mm 0,0 UV-I 0 W/m 15,6 C 20,2 C 4,8 km/h (1 Bft) 97,87 %
03.09.2016 20:02 20,2 C 75 % 1016,3 hPa 0,0 l/m 3,0 km/h (1 Bft) S 171 0 min 0,025 mm 0,0 UV-I 0 W/m 15,6 C 20,2 C 4,8 km/h (1 Bft) 100,00 %
03.09.2016 20:04 20,2 C 74 % 1016,3 hPa 0,0 l/m 4,1 km/h (1 Bft) S 171 0 min 0,000 mm 0,0 UV-I 0 W/m 15,4 C 20,2 C 6,4 km/h (2 Bft) 100,00 %
03.09.2016 20:06 20,2 C 74 % 1016,4 hPa 0,0 l/m 2,4 km/h (1 Bft) S 171 0 min 0,000 mm 0,0 UV-I 0 W/m 15,4 C 20,2 C 6,4 km/h (2 Bft) 100,00 %
03.09.2016 20:08 20,2 C 75 % 1016,4 hPa 0,0 l/m 1,6 km/h (1 Bft) S 171 0 min 0,000 mm 0,0 UV-I 0 W/m 15,6 C 20,2 C 3,2 km/h (1 Bft) 100,00 %
03.09.2016 20:10 20,2 C 75 % 1016,4 hPa 0,0 l/m 1,0 km/h (0 Bft) S 171 0 min 0,000 mm 0,0 UV-I 0 W/m 15,6 C 20,2 C 1,6 km/h (1 Bft) 100,00 %
03.09.2016 20:12 20,1 C 76 % 1016,4 hPa 0,0 l/m 1,2 km/h (1 Bft) S 171 0 min 0,000 mm 0,0 UV-I 0 W/m 15,7 C 20,1 C 1,6 km/h (1 Bft) 100,00 %
03.09.2016 20:14 20,0 C 76 % 1016,4 hPa 0,0 l/m 1,4 km/h (1 Bft) S 171 0 min 0,000 mm 0,0 UV-I 0 W/m 15,6 C 20,0 C 3,2 km/h (1 Bft) 100,00 %
03.09.2016 20:16 20,0 C 76 % 1016,4 hPa 0,0 l/m 1,5 km/h (1 Bft) S 171 0 min 0,000 mm 0,0 UV-I 0 W/m 15,6 C 20,0 C 3,2 km/h (1 Bft) 100,00 %
03.09.2016 20:18 19,9 C 77 % 1016,5 hPa 0,0 l/m 1,0 km/h (0 Bft) S 171 0 min 0,000 mm 0,0 UV-I 0 W/m 15,7 C 19,9 C 3,2 km/h (1 Bft) 100,00 %
03.09.2016 20:20 19,8 C 78 % 1016,5 hPa 0,0 l/m 1,6 km/h (1 Bft) S 171 0 min 0,000 mm 0,0 UV-I 0 W/m 15,8 C 19,8 C 3,2 km/h (1 Bft) 97,87 %
03.09.2016 20:22 19,7 C 78 % 1016,5 hPa 0,0 l/m 2,6 km/h (1 Bft) S 171 0 min 0,000 mm 0,0 UV-I 0 W/m 15,8 C 19,7 C 6,4 km/h (2 Bft) 100,00 %
03.09.2016 20:24 19,8 C 78 % 1016,5 hPa 0,0 l/m 1,8 km/h (1 Bft) S 171 0 min 0,000 mm 0,0 UV-I 0 W/m 15,8 C 19,8 C 3,2 km/h (1 Bft) 98,00 %
03.09.2016 20:26 19,9 C 76 % 1016,5 hPa 0,0 l/m 1,2 km/h (1 Bft) S 171 0 min 0,000 mm 0,0 UV-I 0 W/m 15,5 C 19,9 C 3,2 km/h (1 Bft) 95,74 %
03.09.2016 20:28 20,0 C 77 % 1016,6 hPa 0,0 l/m 0,1 km/h (0 Bft) S 171 0 min 0,000 mm 0,0 UV-I 0 W/m 15,8 C 20,0 C 1,6 km/h (1 Bft) 95,74 %
03.09.2016 20:30 19,9 C 77 % 1016,6 hPa 0,0 l/m 0,5 km/h (0 Bft) S 171 0 min 0,000 mm 0,0 UV-I 0 W/m 15,7 C 19,9 C 1,6 km/h (1 Bft) 89,36 %
03.09.2016 20:32 19,7 C 78 % 1016,6 hPa 0,0 l/m 0,0 km/h (0 Bft) S 171 0 min 0,000 mm 0,0 UV-I 0 W/m 15,8 C 19,7 C 0,0 km/h (0 Bft) 93,62 %
03.09.2016 20:34 19,7 C 79 % 1016,6 hPa 0,0 l/m 1,2 km/h (1 Bft) S 171 0 min 0,000 mm 0,0 UV-I 0 W/m 16,0 C 19,7 C 3,2 km/h (1 Bft) 97,87 %
03.09.2016 20:36 19,7 C 79 % 1016,6 hPa 0,0 l/m 1,5 km/h (1 Bft) S 171 0 min 0,000 mm 0,0 UV-I 0 W/m 16,0 C 19,7 C 3,2 km/h (1 Bft) 95,74 %
03.09.2016 20:38 19,7 C 79 % 1016,6 hPa 0,0 l/m 1,5 km/h (1 Bft) S 171 0 min 0,000 mm 0,0 UV-I 0 W/m 16,0 C 19,7 C 3,2 km/h (1 Bft) 97,87 %
03.09.2016 20:40 19,7 C 79 % 1016,6 hPa 0,0 l/m 1,4 km/h (1 Bft) S 171 0 min 0,000 mm 0,0 UV-I 0 W/m 16,0 C 19,7 C 3,2 km/h (1 Bft) 97,87 %
03.09.2016 20:42 19,7 C 79 % 1016,6 hPa 0,0 l/m 2,1 km/h (1 Bft) S 171 0 min 0,000 mm 0,0 UV-I 0 W/m 16,0 C 19,7 C 3,2 km/h (1 Bft) 97,92 %
03.09.2016 20:44 19,6 C 80 % 1016,6 hPa 0,0 l/m 1,4 km/h (1 Bft) S 171 0 min 0,000 mm 0,0 UV-I 0 W/m 16,1 C 19,6 C 3,2 km/h (1 Bft) 93,62 %
03.09.2016 20:46 19,4 C 80 % 1016,6 hPa 0,0 l/m 1,6 km/h (1 Bft) S 171 0 min 0,000 mm 0,0 UV-I 0 W/m 15,9 C 19,4 C 3,2 km/h (1 Bft) 97,87 %
03.09.2016 20:48 19,3 C 80 % 1016,6 hPa 0,0 l/m 1,4 km/h (1 Bft) S 171 0 min 0,000 mm 0,0 UV-I 0 W/m 15,8 C 19,3 C 3,2 km/h (1 Bft) 93,62 %
03.09.2016 20:50 19,3 C 80 % 1016,6 hPa 0,0 l/m 1,1 km/h (1 Bft) S 171 0 min 0,000 mm 0,0 UV-I 0 W/m 15,8 C 19,3 C 3,2 km/h (1 Bft) 95,74 %
03.09.2016 20:52 19,2 C 80 % 1016,6 hPa 0,0 l/m 0,1 km/h (0 Bft) S 171 0 min 0,000 mm 0,0 UV-I 0 W/m 15,7 C 19,2 C 1,6 km/h (1 Bft) 97,37 %
03.09.2016 20:54 19,2 C 81 % 1016,7 hPa 0,0 l/m 0,2 km/h (0 Bft) S 171 0 min 0,000 mm 0,0 UV-I 0 W/m 15,9 C 19,2 C 1,6 km/h (1 Bft) 97,87 %
03.09.2016 20:56 19,1 C 81 % 1016,7 hPa 0,0 l/m 0,8 km/h (0 Bft) S 171 0 min 0,000 mm 0,0 UV-I 0 W/m 15,8 C 19,1 C 1,6 km/h (1 Bft) 97,87 %
03.09.2016 20:58 19,1 C 81 % 1016,7 hPa 0,0 l/m 1,0 km/h (0 Bft) S 171 0 min 0,000 mm 0,0 UV-I 0 W/m 15,8 C 19,1 C 3,2 km/h (1 Bft) 95,74 %
03.09.2016 21:00 19,2 C 81 % 1016,7 hPa 0,0 l/m 1,4 km/h (1 Bft) S 171 0 min 0,000 mm 0,0 UV-I 0 W/m 15,9 C 19,2 C 3,2 km/h (1 Bft) 100,00 %
03.09.2016 21:02 19,3 C 79 % 1016,7 hPa 0,0 l/m 2,3 km/h (1 Bft) S 171 0 min 0,000 mm 0,0 UV-I 0 W/m 15,6 C 19,3 C 6,4 km/h (2 Bft) 100,00 %
03.09.2016 21:04 19,4 C 80 % 1016,7 hPa 0,0 l/m 3,1 km/h (1 Bft) S 175 0 min 0,000 mm 0,0 UV-I 0 W/m 15,9 C 19,4 C 6,4 km/h (2 Bft) 97,87 %
03.09.2016 21:06 19,4 C 79 % 1016,6 hPa 0,0 l/m 2,5 km/h (1 Bft) S 174 0 min 0,000 mm 0,0 UV-I 0 W/m 15,7 C 19,4 C 4,8 km/h (1 Bft) 100,00 %
03.09.2016 21:08 19,4 C 79 % 1016,6 hPa 0,0 l/m 1,9 km/h (1 Bft) S 171 0 min 0,000 mm 0,0 UV-I 0 W/m 15,7 C 19,4 C 3,2 km/h (1 Bft) 97,87 %
03.09.2016 21:10 19,4 C 79 % 1016,6 hPa 0,0 l/m 2,1 km/h (1 Bft) S 171 0 min 0,000 mm 0,0 UV-I 0 W/m 15,7 C 19,4 C 6,4 km/h (2 Bft) 100,00 %
03.09.2016 21:12 19,4 C 79 % 1016,6 hPa 0,0 l/m 1,4 km/h (1 Bft) S 171 0 min 0,000 mm 0,0 UV-I 0 W/m 15,7 C 19,4 C 3,2 km/h (1 Bft) 100,00 %
03.09.2016 21:14 19,6 C 78 % 1016,7 hPa 0,0 l/m 0,9 km/h (0 Bft) S 171 0 min 0,000 mm 0,0 UV-I 0 W/m 15,7 C 19,6 C 3,2 km/h (1 Bft) 100,00 %
03.09.2016 21:16 19,7 C 78 % 1016,6 hPa 0,0 l/m 1,7 km/h (1 Bft) S 173 0 min 0,000 mm 0,0 UV-I 0 W/m 15,8 C 19,7 C 3,2 km/h (1 Bft) 97,87 %
03.09.2016 21:18 19,7 C 78 % 1016,6 hPa 0,0 l/m 2,1 km/h (1 Bft) S 173 0 min 0,000 mm 0,0 UV-I 0 W/m 15,8 C 19,7 C 4,8 km/h (1 Bft) 97,92 %
03.09.2016 21:20 19,8 C 77 % 1016,7 hPa 0,0 l/m 2,7 km/h (1 Bft) S 173 0 min 0,000 mm 0,0 UV-I 0 W/m 15,6 C 19,8 C 8,0 km/h (2 Bft) 100,00 %
03.09.2016 21:22 19,8 C 77 % 1016,7 hPa 0,0 l/m 2,2 km/h (1 Bft) S 174 0 min 0,000 mm 0,0 UV-I 0 W/m 15,6 C 19,8 C 3,2 km/h (1 Bft) 98,00 %
03.09.2016 21:24 19,8 C 77 % 1016,7 hPa 0,0 l/m 2,0 km/h (1 Bft) S 174 0 min 0,000 mm 0,0 UV-I 0 W/m 15,6 C 19,8 C 3,2 km/h (1 Bft) 100,00 %
03.09.2016 21:26 19,8 C 77 % 1016,7 hPa 0,0 l/m 2,4 km/h (1 Bft) S 174 0 min 0,000 mm 0,0 UV-I 0 W/m 15,6 C 19,8 C 3,2 km/h (1 Bft) 95,00 %
03.09.2016 21:28 19,8 C 77 % 1016,7 hPa 0,0 l/m 2,5 km/h (1 Bft) S 174 0 min 0,000 mm 0,0 UV-I 0 W/m 15,6 C 19,8 C 4,8 km/h (1 Bft) 98,11 %
03.09.2016 21:30 19,8 C 77 % 1016,7 hPa 0,0 l/m 1,8 km/h (1 Bft) S 174 0 min 0,000 mm 0,0 UV-I 0 W/m 15,6 C 19,8 C 3,2 km/h (1 Bft) 95,74 %
03.09.2016 21:32 19,8 C 77 % 1016,7 hPa 0,0 l/m 2,1 km/h (1 Bft) S 174 0 min 0,000 mm 0,0 UV-I 0 W/m 15,6 C 19,8 C 3,2 km/h (1 Bft) 100,00 %
03.09.2016 21:34 19,7 C 78 % 1016,7 hPa 0,0 l/m 3,0 km/h (1 Bft) S 174 0 min 0,000 mm 0,0 UV-I 0 W/m 15,8 C 19,7 C 8,0 km/h (2 Bft) 100,00 %
03.09.2016 21:36 19,6 C 78 % 1016,6 hPa 0,0 l/m 2,5 km/h (1 Bft) S 174 0 min 0,000 mm 0,0 UV-I 0 W/m 15,7 C 19,6 C 4,8 km/h (1 Bft) 93,62 %
03.09.2016 21:38 19,6 C 78 % 1016,7 hPa 0,0 l/m 3,7 km/h (1 Bft) S 190 0 min 0,000 mm 0,0 UV-I 0 W/m 15,7 C 19,6 C 6,4 km/h (2 Bft) 100,00 %
03.09.2016 21:40 19,5 C 79 % 1016,7 hPa 0,0 l/m 3,3 km/h (1 Bft) S-SW 192 0 min 0,000 mm 0,0 UV-I 0 W/m 15,8 C 19,5 C 4,8 km/h (1 Bft) 100,00 %
03.09.2016 21:42 19,4 C 79 % 1016,6 hPa 0,0 l/m 4,4 km/h (1 Bft) S 191 0 min 0,000 mm 0,0 UV-I 0 W/m 15,7 C 19,4 C 6,4 km/h (2 Bft) 100,00 %
03.09.2016 21:44 19,4 C 79 % 1016,7 hPa 0,0 l/m 4,1 km/h (1 Bft) S 190 0 min 0,000 mm 0,0 UV-I 0 W/m 15,7 C 19,4 C 6,4 km/h (2 Bft) 95,74 %
03.09.2016 21:46 19,4 C 79 % 1016,6 hPa 0,0 l/m 3,8 km/h (1 Bft) S 190 0 min 0,000 mm 0,0 UV-I 0 W/m 15,7 C 19,4 C 4,8 km/h (1 Bft) 100,00 %
03.09.2016 21:48 19,3 C 79 % 1016,6 hPa 0,0 l/m 3,8 km/h (1 Bft) S 190 0 min 0,000 mm 0,0 UV-I 0 W/m 15,6 C 19,3 C 4,8 km/h (1 Bft) 100,00 %
03.09.2016 21:50 19,4 C 79 % 1016,6 hPa 0,0 l/m 3,5 km/h (1 Bft) S 190 0 min 0,000 mm 0,0 UV-I 0 W/m 15,7 C 19,4 C 4,8 km/h (1 Bft) 97,87 %
03.09.2016 21:52 19,3 C 80 % 1016,7 hPa 0,0 l/m 3,3 km/h (1 Bft) S 190 0 min 0,000 mm 0,0 UV-I 0 W/m 15,8 C 19,3 C 4,8 km/h (1 Bft) 100,00 %
03.09.2016 21:54 19,3 C 80 % 1016,6 hPa 0,0 l/m 2,6 km/h (1 Bft) S 190 0 min 0,000 mm 0,0 UV-I 0 W/m 15,8 C 19,3 C 4,8 km/h (1 Bft) 100,00 %
03.09.2016 21:56 19,1 C 80 % 1016,6 hPa 0,0 l/m 1,8 km/h (1 Bft) S 190 0 min 0,000 mm 0,0 UV-I 0 W/m 15,6 C 19,1 C 3,2 km/h (1 Bft) 100,00 %
03.09.2016 21:58 19,0 C 81 % 1016,6 hPa 0,0 l/m 2,9 km/h (1 Bft) S 190 0 min 0,000 mm 0,0 UV-I 0 W/m 15,7 C 19,0 C 4,8 km/h (1 Bft) 100,00 %
03.09.2016 22:00 18,8 C 81 % 1016,5 hPa 0,0 l/m 2,9 km/h (1 Bft) S 190 0 min 0,026 mm 0,0 UV-I 0 W/m 15,5 C 18,8 C 4,8 km/h (1 Bft) 100,00 %
03.09.2016 22:02 18,8 C 82 % 1016,5 hPa 0,0 l/m 2,4 km/h (1 Bft) S 190 0 min 0,000 mm 0,0 UV-I 0 W/m 15,7 C 18,8 C 4,8 km/h (1 Bft) 97,87 %
03.09.2016 22:04 18,8 C 82 % 1016,5 hPa 0,0 l/m 2,5 km/h (1 Bft) S 190 0 min 0,000 mm 0,0 UV-I 0 W/m 15,7 C 18,8 C 3,2 km/h (1 Bft) 100,00 %
03.09.2016 22:06 18,8 C 81 % 1016,5 hPa 0,0 l/m 2,3 km/h (1 Bft) S 190 0 min 0,000 mm 0,0 UV-I 0 W/m 15,5 C 18,8 C 4,8 km/h (1 Bft) 97,87 %
03.09.2016 22:08 18,9 C 81 % 1016,6 hPa 0,0 l/m 3,6 km/h (1 Bft) S 190 0 min 0,000 mm 0,0 UV-I 0 W/m 15,6 C 18,9 C 4,8 km/h (1 Bft) 100,00 %
03.09.2016 22:10 19,0 C 81 % 1016,5 hPa 0,0 l/m 4,1 km/h (1 Bft) S 191 0 min 0,000 mm 0,0 UV-I 0 W/m 15,7 C 19,0 C 6,4 km/h (2 Bft) 100,00 %
03.09.2016 22:12 19,1 C 81 % 1016,5 hPa 0,0 l/m 3,8 km/h (1 Bft) S 191 0 min 0,000 mm 0,0 UV-I 0 W/m 15,8 C 19,1 C 6,4 km/h (2 Bft) 100,00 %
03.09.2016 22:14 19,1 C 81 % 1016,5 hPa 0,0 l/m 3,7 km/h (1 Bft) S 191 0 min 0,000 mm 0,0 UV-I 0 W/m 15,8 C 19,1 C 4,8 km/h (1 Bft) 100,00 %
03.09.2016 22:16 19,2 C 80 % 1016,5 hPa 0,0 l/m 3,2 km/h (1 Bft) S 191 0 min 0,000 mm 0,0 UV-I 0 W/m 15,7 C 19,2 C 4,8 km/h (1 Bft) 97,87 %
03.09.2016 22:18 19,2 C 80 % 1016,5 hPa 0,0 l/m 2,7 km/h (1 Bft) S 191 0 min 0,000 mm 0,0 UV-I 0 W/m 15,7 C 19,2 C 4,8 km/h (1 Bft) 100,00 %
03.09.2016 22:20 19,2 C 80 % 1016,5 hPa 0,0 l/m 2,2 km/h (1 Bft) S 191 0 min 0,000 mm 0,0 UV-I 0 W/m 15,7 C 19,2 C 3,2 km/h (1 Bft) 100,00 %
03.09.2016 22:22 19,2 C 80 % 1016,5 hPa 0,0 l/m 1,8 km/h (1 Bft) S 191 0 min 0,000 mm 0,0 UV-I 0 W/m 15,7 C 19,2 C 3,2 km/h (1 Bft) 100,00 %
03.09.2016 22:24 19,2 C 80 % 1016,5 hPa 0,0 l/m 2,2 km/h (1 Bft) S 191 0 min 0,000 mm 0,0 UV-I 0 W/m 15,7 C 19,2 C 4,8 km/h (1 Bft) 100,00 %
03.09.2016 22:26 19,2 C 80 % 1016,4 hPa 0,0 l/m 2,1 km/h (1 Bft) S 191 0 min 0,000 mm 0,0 UV-I 0 W/m 15,7 C 19,2 C 3,2 km/h (1 Bft) 98,00 %
03.09.2016 22:28 19,2 C 81 % 1016,5 hPa 0,0 l/m 2,9 km/h (1 Bft) S 191 0 min 0,000 mm 0,0 UV-I 0 W/m 15,9 C 19,2 C 4,8 km/h (1 Bft) 97,87 %
03.09.2016 22:30 19,2 C 81 % 1016,5 hPa 0,0 l/m 1,9 km/h (1 Bft) S 191 0 min 0,000 mm 0,0 UV-I 0 W/m 15,9 C 19,2 C 3,2 km/h (1 Bft) 98,00 %
03.09.2016 22:32 19,2 C 81 % 1016,4 hPa 0,0 l/m 1,5 km/h (1 Bft) S 191 0 min 0,000 mm 0,0 UV-I 0 W/m 15,9 C 19,2 C 3,2 km/h (1 Bft) 97,87 %
03.09.2016 22:34 19,2 C 81 % 1016,5 hPa 0,0 l/m 1,9 km/h (1 Bft) S 191 0 min 0,000 mm 0,0 UV-I 0 W/m 15,9 C 19,2 C 3,2 km/h (1 Bft) 94,00 %
03.09.2016 22:36 19,2 C 81 % 1016,5 hPa 0,0 l/m 3,0 km/h (1 Bft) S 191 0 min 0,000 mm 0,0 UV-I 0 W/m 15,9 C 19,2 C 4,8 km/h (1 Bft) 97,87 %
03.09.2016 22:38 19,1 C 81 % 1016,4 hPa 0,0 l/m 2,3 km/h (1 Bft) S 191 0 min 0,000 mm 0,0 UV-I 0 W/m 15,8 C 19,1 C 3,2 km/h (1 Bft) 94,44 %
03.09.2016 22:40 19,1 C 81 % 1016,4 hPa 0,0 l/m 2,5 km/h (1 Bft) S 191 0 min 0,000 mm 0,0 UV-I 0 W/m 15,8 C 19,1 C 3,2 km/h (1 Bft) 94,00 %
03.09.2016 22:42 19,1 C 81 % 1016,4 hPa 0,0 l/m 2,8 km/h (1 Bft) S 191 0 min 0,000 mm 0,0 UV-I 0 W/m 15,8 C 19,1 C 4,8 km/h (1 Bft) 98,00 %
03.09.2016 22:44 19,1 C 81 % 1016,4 hPa 0,0 l/m 3,5 km/h (1 Bft) S 191 0 min 0,000 mm 0,0 UV-I 0 W/m 15,8 C 19,1 C 4,8 km/h (1 Bft) 98,00 %
03.09.2016 22:46 19,1 C 81 % 1016,3 hPa 0,0 l/m 3,2 km/h (1 Bft) S 190 0 min 0,000 mm 0,0 UV-I 0 W/m 15,8 C 19,1 C 4,8 km/h (1 Bft) 97,87 %
03.09.2016 22:48 19,1 C 81 % 1016,3 hPa 0,0 l/m 3,8 km/h (1 Bft) S 191 0 min 0,000 mm 0,0 UV-I 0 W/m 15,8 C 19,1 C 6,4 km/h (2 Bft) 96,00 %
03.09.2016 22:50 19,1 C 81 % 1016,3 hPa 0,0 l/m 3,1 km/h (1 Bft) S 191 0 min 0,000 mm 0,0 UV-I 0 W/m 15,8 C 19,1 C 4,8 km/h (1 Bft) 97,14 %
03.09.2016 22:52 19,1 C 81 % 1016,4 hPa 0,0 l/m 4,2 km/h (1 Bft) S 191 0 min 0,000 mm 0,0 UV-I 0 W/m 15,8 C 19,1 C 6,4 km/h (2 Bft) 97,87 %
03.09.2016 22:54 19,1 C 81 % 1016,4 hPa 0,0 l/m 4,2 km/h (1 Bft) S 191 0 min 0,000 mm 0,0 UV-I 0 W/m 15,8 C 19,1 C 6,4 km/h (2 Bft) 94,00 %
03.09.2016 22:56 19,0 C 81 % 1016,4 hPa 0,0 l/m 3,7 km/h (1 Bft) S 191 0 min 0,000 mm 0,0 UV-I 0 W/m 15,7 C 19,0 C 6,4 km/h (2 Bft) 98,00 %
03.09.2016 22:58 19,0 C 81 % 1016,4 hPa 0,0 l/m 3,7 km/h (1 Bft) S 191 0 min 0,000 mm 0,0 UV-I 0 W/m 15,7 C 19,0 C 4,8 km/h (1 Bft) 97,87 %
03.09.2016 23:00 18,9 C 81 % 1016,3 hPa 0,0 l/m 3,3 km/h (1 Bft) S 191 0 min 0,000 mm 0,0 UV-I 0 W/m 15,6 C 18,9 C 4,8 km/h (1 Bft) 97,87 %
03.09.2016 23:02 18,9 C 81 % 1016,3 hPa 0,0 l/m 4,1 km/h (1 Bft) S 190 0 min 0,000 mm 0,0 UV-I 0 W/m 15,6 C 18,9 C 6,4 km/h (2 Bft) 100,00 %
03.09.2016 23:04 18,9 C 81 % 1016,3 hPa 0,0 l/m 3,4 km/h (1 Bft) S 190 0 min 0,000 mm 0,0 UV-I 0 W/m 15,6 C 18,9 C 4,8 km/h (1 Bft) 97,87 %
03.09.2016 23:06 18,9 C 81 % 1016,3 hPa 0,0 l/m 3,5 km/h (1 Bft) S 190 0 min 0,000 mm 0,0 UV-I 0 W/m 15,6 C 18,9 C 4,8 km/h (1 Bft) 97,87 %
03.09.2016 23:08 18,9 C 81 % 1016,3 hPa 0,0 l/m 3,4 km/h (1 Bft) S 190 0 min 0,000 mm 0,0 UV-I 0 W/m 15,6 C 18,9 C 4,8 km/h (1 Bft) 95,74 %
03.09.2016 23:10 18,9 C 81 % 1016,4 hPa 0,0 l/m 3,9 km/h (1 Bft) S 190 0 min 0,000 mm 0,0 UV-I 0 W/m 15,6 C 18,9 C 4,8 km/h (1 Bft) 100,00 %
03.09.2016 23:12 18,8 C 82 % 1016,4 hPa 0,0 l/m 3,7 km/h (1 Bft) S 190 0 min 0,000 mm 0,0 UV-I 0 W/m 15,7 C 18,8 C 4,8 km/h (1 Bft) 100,00 %
03.09.2016 23:14 18,8 C 82 % 1016,4 hPa 0,0 l/m 3,3 km/h (1 Bft) S 190 0 min 0,000 mm 0,0 UV-I 0 W/m 15,7 C 18,8 C 4,8 km/h (1 Bft) 100,00 %
03.09.2016 23:16 18,8 C 82 % 1016,4 hPa 0,0 l/m 2,3 km/h (1 Bft) S 190 0 min 0,000 mm 0,0 UV-I 0 W/m 15,7 C 18,8 C 3,2 km/h (1 Bft) 97,87 %
03.09.2016 23:18 18,7 C 82 % 1016,4 hPa 0,0 l/m 3,5 km/h (1 Bft) S 190 0 min 0,000 mm 0,0 UV-I 0 W/m 15,6 C 18,7 C 4,8 km/h (1 Bft) 100,00 %
03.09.2016 23:20 18,7 C 82 % 1016,4 hPa 0,0 l/m 3,6 km/h (1 Bft) S 190 0 min 0,000 mm 0,0 UV-I 0 W/m 15,6 C 18,7 C 4,8 km/h (1 Bft) 100,00 %
03.09.2016 23:22 18,7 C 82 % 1016,4 hPa 0,0 l/m 3,5 km/h (1 Bft) S 190 0 min 0,000 mm 0,0 UV-I 0 W/m 15,6 C 18,7 C 6,4 km/h (2 Bft) 100,00 %
03.09.2016 23:24 18,6 C 82 % 1016,4 hPa 0,0 l/m 3,7 km/h (1 Bft) S 190 0 min 0,000 mm 0,0 UV-I 0 W/m 15,5 C 18,6 C 4,8 km/h (1 Bft) 100,00 %
03.09.2016 23:26 18,6 C 82 % 1016,4 hPa 0,0 l/m 3,6 km/h (1 Bft) S 190 0 min 0,000 mm 0,0 UV-I 0 W/m 15,5 C 18,6 C 4,8 km/h (1 Bft) 100,00 %
03.09.2016 23:28 18,7 C 82 % 1016,4 hPa 0,0 l/m 3,3 km/h (1 Bft) S 190 0 min 0,000 mm 0,0 UV-I 0 W/m 15,6 C 18,7 C 6,4 km/h (2 Bft) 100,00 %
03.09.2016 23:30 18,7 C 82 % 1016,4 hPa 0,0 l/m 3,3 km/h (1 Bft) S 190 0 min 0,000 mm 0,0 UV-I 0 W/m 15,6 C 18,7 C 4,8 km/h (1 Bft) 97,87 %
03.09.2016 23:32 18,7 C 82 % 1016,4 hPa 0,0 l/m 4,3 km/h (1 Bft) S 190 0 min 0,000 mm 0,0 UV-I 0 W/m 15,6 C 18,7 C 6,4 km/h (2 Bft) 100,00 %
03.09.2016 23:34 18,6 C 82 % 1016,4 hPa 0,0 l/m 3,8 km/h (1 Bft) S 190 0 min 0,000 mm 0,0 UV-I 0 W/m 15,5 C 18,6 C 4,8 km/h (1 Bft) 100,00 %
03.09.2016 23:36 18,6 C 82 % 1016,4 hPa 0,0 l/m 3,7 km/h (1 Bft) S 190 0 min 0,000 mm 0,0 UV-I 0 W/m 15,5 C 18,6 C 4,8 km/h (1 Bft) 100,00 %
03.09.2016 23:38 18,5 C 82 % 1016,4 hPa 0,0 l/m 4,4 km/h (1 Bft) S 190 0 min 0,000 mm 0,0 UV-I 0 W/m 15,4 C 18,5 C 6,4 km/h (2 Bft) 100,00 %
03.09.2016 23:40 18,5 C 82 % 1016,4 hPa 0,0 l/m 3,8 km/h (1 Bft) S 190 0 min 0,000 mm 0,0 UV-I 0 W/m 15,4 C 18,5 C 6,4 km/h (2 Bft) 97,87 %
03.09.2016 23:42 18,5 C 82 % 1016,4 hPa 0,0 l/m 4,4 km/h (1 Bft) S 190 0 min 0,000 mm 0,0 UV-I 0 W/m 15,4 C 18,5 C 6,4 km/h (2 Bft) 97,14 %
03.09.2016 23:44 18,5 C 82 % 1016,4 hPa 0,0 l/m 4,9 km/h (1 Bft) S 190 0 min 0,000 mm 0,0 UV-I 0 W/m 15,4 C 18,5 C 6,4 km/h (2 Bft) 100,00 %
03.09.2016 23:46 18,5 C 82 % 1016,4 hPa 0,0 l/m 4,6 km/h (1 Bft) S-SW 192 0 min 0,000 mm 0,0 UV-I 0 W/m 15,4 C 18,5 C 6,4 km/h (2 Bft) 100,00 %
03.09.2016 23:48 18,6 C 82 % 1016,4 hPa 0,0 l/m 4,7 km/h (1 Bft) S-SW 198 0 min 0,000 mm 0,0 UV-I 0 W/m 15,5 C 18,6 C 6,4 km/h (2 Bft) 100,00 %
03.09.2016 23:50 18,6 C 82 % 1016,4 hPa 0,0 l/m 4,3 km/h (1 Bft) S-SW 198 0 min 0,000 mm 0,0 UV-I 0 W/m 15,5 C 18,6 C 6,4 km/h (2 Bft) 100,00 %
03.09.2016 23:52 18,6 C 82 % 1016,4 hPa 0,0 l/m 4,3 km/h (1 Bft) S 183 0 min 0,000 mm 0,0 UV-I 0 W/m 15,5 C 18,6 C 6,4 km/h (2 Bft) 98,00 %
03.09.2016 23:54 18,6 C 82 % 1016,3 hPa 0,0 l/m 4,2 km/h (1 Bft) S 182 0 min 0,000 mm 0,0 UV-I 0 W/m 15,5 C 18,6 C 6,4 km/h (2 Bft) 100,00 %
03.09.2016 23:56 18,6 C 82 % 1016,3 hPa 0,0 l/m 5,3 km/h (1 Bft) S 180 0 min 0,000 mm 0,0 UV-I 0 W/m 15,5 C 18,6 C 8,0 km/h (2 Bft) 97,87 %
03.09.2016 23:58 18,6 C 82 % 1016,4 hPa 0,0 l/m 5,4 km/h (1 Bft) S 182 0 min 0,000 mm 0,0 UV-I 0 W/m 15,5 C 18,6 C 8,0 km/h (2 Bft) 95,74 %
_ Min-Zeit 06:54 17:06 17:10 - 03:50 - - - - - - 05:58 06:54 04:30 20:30
Minimum _ 13,1 C 52 % 1016,1 hPa - 0,0 km/h (0 Bft) - - - - - - 11,9 C 13,1 C 0,0 km/h (0 Bft) 89,36 %
_ Max-Zeit 16:28 05:12 09:48 00:00 14:20 - - 06:36 14:00 12:48 14:30 15:12 16:28 15:36 00:00
Maximum _ 26,6 C 94 % 1019,1 hPa 0,0 l/m 10,2 km/h
W (2 Bft)
- - 2 min 0,458 mm 5,0 UV-I 881 W/m 17,6 C 26,6 C 20,9 km/h
NW (4 Bft)
100,00 %
Durchschnitt _ 19,5 C 76 % 1017,6 hPa #0,0 l/m 2,4 km/h (1 Bft) S - #8:02 h #3,099 mm 2,6 UV-I 352 W/m 14,8 C 19,4 C 4,7 km/h (1 Bft) 98,41 %